<- Previous Day | Today | Next Day ->

All Data for 16 September 2020

 

Time A - D Temp A - D Dew Point A - D Humidity A - D Pressure A - D Wind A - D Wind Dir Gust A - D Rain Rate A - D Rain Total
00:00 15.4 13.1 86 1022.0 3.8 N 6.0 0.0 0.0
00:01 15.4 13.1 86 1021.7 4.5 NE 6.0 0.0 0.0
00:02 15.4 13.1 86 1021.6 1.6 NE 5.4 0.0 0.0
00:03 15.5 13.2 86 1021.7 1.6 NE 5.4 0.0 0.0
00:04 15.5 13.2 86 1021.9 1.6 NNW 5.4 0.0 0.0
00:05 15.5 13.2 86 1021.6 2.2 N 5.4 0.0 0.0
00:06 15.5 13.2 86 1021.5 2.2 E 5.4 0.0 0.0
00:08 15.5 13.2 86 1021.8 3.1 N 5.4 0.0 0.0
00:09 15.5 13.2 86 1021.8 3.1 NE 4.5 0.0 0.0
00:10 15.5 13.2 86 1021.6 3.1 N 4.5 0.0 0.0
00:11 15.5 13.2 86 1021.8 3.8 NW 4.5 0.0 0.0
00:12 15.5 13.2 86 1021.8 3.8 NE 4.5 0.0 0.0
00:13 15.5 13.2 86 1021.6 3.8 E 4.5 0.0 0.0
00:14 15.5 13.2 86 1021.7 2.2 NE 4.5 0.0 0.0
00:15 15.5 13.2 86 1021.7 3.1 SE 4.5 0.0 0.0
00:16 15.5 13.2 86 1021.7 3.1 N 4.5 0.0 0.0
00:17 15.4 13.1 86 1021.6 3.1 NE 3.8 0.0 0.0
00:18 15.4 13.1 86 1021.7 3.8 NNW 3.8 0.0 0.0
00:19 15.4 13.1 86 1021.6 2.2 NE 3.8 0.0 0.0
00:20 15.4 13.1 86 1021.5 1.6 NNW 3.8 0.0 0.0
00:22 15.4 13.1 86 1021.6 2.2 NNW 3.8 0.0 0.0
00:23 15.4 13.1 86 1021.6 1.6 NE 3.8 0.0 0.0
00:24 15.4 13.1 86 1021.6 1.6 NE 3.8 0.0 0.0
00:25 15.4 13.1 86 1021.7 2.2 NNW 3.8 0.0 0.0
00:26 15.4 13.1 86 1021.8 2.2 NE 3.8 0.0 0.0
00:27 15.4 13.1 86 1021.7 1.6 SE 3.8 0.0 0.0
00:28 15.4 13.1 86 1021.7 1.6 NNW 3.8 0.0 0.0
00:29 15.4 13.1 86 1021.6 3.8 NE 3.8 0.0 0.0
00:30 15.4 13.1 86 1021.7 2.2 NNW 3.8 0.0 0.0
00:31 15.4 13.1 86 1021.6 2.2 NE 3.8 0.0 0.0
00:32 15.4 13.1 86 1021.6 2.2 NNW 3.8 0.0 0.0
00:33 15.4 13.1 86 1021.5 2.2 NNW 3.8 0.0 0.0
00:34 15.4 13.1 86 1021.6 2.2 NNW 3.8 0.0 0.0
00:36 15.4 13.1 86 1021.2 2.2 NE 3.8 0.0 0.0
00:37 15.4 13.1 86 1021.4 2.2 NE 3.8 0.0 0.0
00:38 15.4 13.1 86 1021.6 1.6 N 3.8 0.0 0.0
00:39 15.4 13.1 86 1021.3 1.6 N 3.8 0.0 0.0
00:40 15.4 13.1 86 1021.6 1.6 W 2.2 0.0 0.0
00:41 15.4 13.1 86 1021.7 3.1 NNW 3.1 0.0 0.0
00:42 15.3 13.0 86 1021.3 3.8 NNW 3.8 0.0 0.0
00:43 15.3 13.0 86 1021.6 4.5 N 4.5 0.0 0.0
00:44 15.3 13.0 86 1021.5 4.5 N 4.5 0.0 0.0
00:45 15.3 13.0 86 1021.5 3.1 NNW 4.5 0.0 0.0
00:46 15.3 13.0 86 1021.5 3.1 N 4.5 0.0 0.0
00:47 15.3 13.0 86 1021.6 3.8 N 4.5 0.0 0.0
00:48 15.3 13.0 86 1021.6 3.8 NNW 4.5 0.0 0.0
00:49 15.3 13.0 86 1021.7 3.1 NE 4.5 0.0 0.0
00:50 15.3 13.0 86 1021.5 3.1 N 4.5 0.0 0.0
00:52 15.3 13.0 86 1021.7 3.1 NE 4.5 0.0 0.0
00:53 15.3 13.0 86 1021.7 2.2 NNW 4.5 0.0 0.0
00:54 15.3 13.0 86 1021.5 2.2 SE 4.5 0.0 0.0
00:55 15.3 13.0 86 1021.6 3.8 N 3.8 0.0 0.0
00:56 15.3 13.0 86 1021.9 3.8 NE 3.8 0.0 0.0
00:57 15.3 13.0 86 1021.6 2.2 NW 3.8 0.0 0.0
00:58 15.3 13.0 86 1021.7 3.1 NE 3.8 0.0 0.0
00:59 15.3 13.0 86 1021.7 3.1 N 3.8 0.0 0.0
01:00 15.3 13.0 86 1021.9 3.1 N 3.8 0.0 0.0
01:01 15.3 13.0 86 1021.6 3.1 N 3.8 0.0 0.0
01:02 15.3 13.0 86 1021.7 3.1 N 3.8 0.0 0.0
01:03 15.3 13.0 86 1021.7 3.1 N 3.8 0.0 0.0
01:04 15.3 13.0 86 1021.6 3.1 N 3.8 0.0 0.0
01:05 15.3 13.0 86 1021.7 3.1 N 3.8 0.0 0.0
01:06 15.3 13.0 86 1021.7 3.1 N 3.1 0.0 0.0
01:07 15.3 13.0 86 1021.5 1.6 E 3.1 0.0 0.0
01:09 15.3 13.0 86 1021.6 2.2 N 3.1 0.0 0.0
01:10 15.3 13.0 86 1021.9 3.1 E 3.1 0.0 0.0
01:11 15.3 13.0 86 1021.7 3.1 SE 3.1 0.0 0.0
01:12 15.3 13.0 86 1021.8 3.8 S 3.8 0.0 0.0
01:13 15.3 13.0 86 1021.8 3.1 SW 3.8 0.0 0.0
01:15 15.3 13.0 86 1021.7 3.8 NNW 3.8 0.0 0.0
01:16 15.3 13.0 86 1021.8 3.8 NE 3.8 0.0 0.0
01:18 15.3 13.0 86 1021.9 6.0 NW 6.0 0.0 0.0
01:19 15.3 13.0 86 1021.7 3.1 SW 6.0 0.0 0.0
01:20 15.3 13.0 86 1021.7 3.1 SW 6.0 0.0 0.0
01:21 15.3 13.0 86 1021.8 6.0 N 6.0 0.0 0.0
01:22 15.3 13.0 86 1021.7 3.8 NW 6.0 0.0 0.0
01:23 15.2 12.9 86 1021.5 1.6 E 6.0 0.0 0.0
01:24 15.2 12.9 86 1021.6 0.7 N 6.0 0.0 0.0
01:25 15.2 12.9 86 1021.6 1.6 N 6.0 0.0 0.0
01:26 15.2 12.9 86 1021.8 2.2 NE 6.0 0.0 0.0
01:27 15.2 12.9 86 1021.6 1.6 N 6.0 0.0 0.0
01:28 15.2 12.9 86 1021.7 3.1 NNW 6.0 0.0 0.0
01:29 15.2 12.9 86 1021.5 2.2 NNW 6.0 0.0 0.0
01:30 15.2 12.9 86 1021.7 2.2 NNW 6.0 0.0 0.0
01:31 15.2 12.9 86 1021.5 1.6 NNW 6.0 0.0 0.0
01:32 15.2 12.9 86 1021.8 1.6 NE 3.1 0.0 0.0
01:33 15.2 12.9 86 1021.7 2.2 N 3.1 0.0 0.0
01:34 15.2 12.9 86 1021.8 1.6 N 3.1 0.0 0.0
01:35 15.2 12.9 86 1021.6 3.8 NNW 3.8 0.0 0.0
01:37 15.2 12.9 86 1021.8 3.1 NE 4.5 0.0 0.0
01:38 15.2 12.9 86 1021.7 3.1 N 4.5 0.0 0.0
01:39 15.2 12.9 86 1021.7 3.1 N 4.5 0.0 0.0
01:40 15.2 12.9 86 1021.9 3.8 NNW 4.5 0.0 0.0
01:41 15.2 12.9 86 1021.8 5.4 W 5.4 0.0 0.0
01:42 15.2 12.9 86 1021.7 5.4 W 5.4 0.0 0.0
01:43 15.2 12.9 86 1021.7 4.5 SE 5.4 0.0 0.0
01:44 15.2 12.9 86 1021.6 3.8 NNW 5.4 0.0 0.0
01:45 15.2 12.9 86 1021.6 3.8 N 5.4 0.0 0.0
01:46 15.2 12.9 86 1021.8 3.8 NE 5.4 0.0 0.0
01:47 15.2 12.9 86 1021.6 5.4 W 5.4 0.0 0.0
01:48 15.1 12.8 86 1021.8 3.8 NNW 5.4 0.0 0.0
01:49 15.1 12.8 86 1021.8 2.2 NNW 5.4 0.0 0.0
01:50 15.1 12.8 86 1021.7 3.1 NNW 5.4 0.0 0.0
01:51 15.1 12.8 86 1021.5 4.5 NE 5.4 0.0 0.0
01:52 15.1 12.8 86 1021.6 2.2 NE 5.4 0.0 0.0
01:53 15.1 12.8 86 1021.7 2.2 NE 5.4 0.0 0.0
01:55 15.1 12.8 86 1021.6 5.4 NE 5.4 0.0 0.0
01:56 15.1 12.8 86 1021.6 5.4 NE 5.4 0.0 0.0
01:57 15.1 12.8 86 1021.7 3.1 E 5.4 0.0 0.0
01:58 15.1 12.8 86 1021.5 3.1 N 5.4 0.0 0.0
01:59 15.1 12.8 86 1021.4 3.1 NE 5.4 0.0 0.0
02:00 15.1 12.8 86 1021.5 3.1 NE 5.4 0.0 0.0
02:01 15.1 12.8 86 1021.5 3.1 SE 5.4 0.0 0.0
02:02 15.1 13.0 87 1021.7 3.8 N 5.4 0.0 0.0
02:03 15.1 13.0 87 1021.6 3.8 N 5.4 0.0 0.0
02:04 15.1 13.0 87 1021.7 6.0 NNW 6.0 0.0 0.0
02:05 15.1 13.0 87 1021.5 6.0 E 6.0 0.0 0.0
02:06 15.1 13.0 87 1021.6 5.4 NE 6.0 0.0 0.0
02:07 15.1 13.0 87 1021.7 3.8 NNW 6.0 0.0 0.0
02:09 15.1 13.0 87 1021.5 3.8 NNW 6.0 0.0 0.0
02:10 15.1 13.0 87 1021.6 4.5 E 6.0 0.0 0.0
02:11 15.1 13.0 87 1021.5 3.8 NW 6.0 0.0 0.0
02:12 15.1 13.0 87 1021.4 3.1 N 6.0 0.0 0.0
02:13 15.1 13.0 87 1021.5 5.4 NNW 6.0 0.0 0.0
02:14 15.1 13.0 87 1021.7 3.8 W 6.0 0.0 0.0
02:15 15.1 13.0 87 1021.6 4.5 NNW 6.0 0.0 0.0
02:16 15.1 13.0 87 1021.5 3.1 NE 5.4 0.0 0.0
02:17 15.1 13.0 87 1021.4 5.4 NNW 5.4 0.0 0.0
02:18 15.1 13.0 87 1021.5 5.4 NE 5.4 0.0 0.0
02:19 15.1 13.0 87 1021.7 3.8 SW 5.4 0.0 0.0
02:20 15.1 13.0 87 1021.5 6.0 NE 6.0 0.0 0.0
02:21 15.1 13.0 87 1021.7 6.0 NE 6.0 0.0 0.0
02:23 15.0 12.9 87 1021.5 3.1 E 6.0 0.0 0.0
02:24 15.0 12.9 87 1021.5 3.8 NNW 6.0 0.0 0.0
02:25 15.0 12.9 87 1021.6 3.8 N 6.0 0.0 0.0
02:26 15.0 12.9 87 1021.6 3.8 NNW 6.0 0.0 0.0
02:27 15.0 12.9 87 1021.7 2.2 NNW 6.0 0.0 0.0
02:28 15.0 12.9 87 1021.6 3.1 NE 6.0 0.0 0.0
02:29 15.0 12.9 87 1021.6 2.2 NW 6.0 0.0 0.0
02:30 15.0 12.9 87 1021.7 2.2 N 6.0 0.0 0.0
02:31 15.0 12.9 87 1021.6 2.2 W 6.0 0.0 0.0
02:32 15.0 12.9 87 1021.5 3.1 NE 4.5 0.0 0.0
02:33 15.0 12.9 87 1021.5 3.8 N 3.8 0.0 0.0
02:34 15.0 12.9 87 1021.6 3.1 NE 3.8 0.0 0.0
02:35 15.0 12.9 87 1021.7 4.5 NW 4.5 0.0 0.0
02:37 15.0 12.9 87 1021.5 6.0 NNW 6.0 0.0 0.0
02:38 15.0 12.9 87 1021.5 6.0 NNW 6.0 0.0 0.0
02:39 15.0 12.9 87 1021.5 4.5 SW 6.0 0.0 0.0
02:40 15.0 12.9 87 1021.4 4.5 N 6.0 0.0 0.0
02:41 15.0 12.9 87 1021.5 6.0 NE 6.0 0.0 0.0
02:42 15.0 12.9 87 1021.5 5.4 NNW 6.0 0.0 0.0
02:43 15.0 12.9 87 1021.6 5.4 NNW 6.0 0.0 0.0
02:44 15.0 12.9 87 1021.5 3.1 E 6.0 0.0 0.0
02:45 15.0 12.9 87 1021.6 3.1 E 6.0 0.0 0.0
02:46 15.0 12.9 87 1021.6 4.5 N 6.0 0.0 0.0
02:47 15.0 12.9 87 1021.5 6.9 NNW 6.9 0.0 0.0
02:48 15.0 12.9 87 1021.5 6.9 N 6.9 0.0 0.0
02:49 15.0 12.9 87 1021.5 6.0 NNW 6.9 0.0 0.0
02:51 15.0 12.9 87 1021.7 7.6 NNW 7.6 0.0 0.0
02:52 15.0 12.9 87 1021.5 4.5 N 7.6 0.0 0.0
02:53 15.0 12.9 87 1021.8 4.5 NNW 7.6 0.0 0.0
02:54 15.0 12.9 87 1021.5 6.9 NE 7.6 0.0 0.0
02:55 15.0 12.9 87 1021.5 4.5 N 7.6 0.0 0.0
02:56 15.0 12.9 87 1021.5 4.5 E 7.6 0.0 0.0
02:57 15.0 12.9 87 1021.3 6.0 NE 7.6 0.0 0.0
02:58 15.0 12.9 87 1021.5 3.8 SW 7.6 0.0 0.0
02:59 15.0 12.9 87 1021.3 5.4 NW 7.6 0.0 0.0
03:00 15.0 12.9 87 1021.6 4.5 N 7.6 0.0 0.0
03:01 15.0 12.9 87 1021.4 4.5 N 7.6 0.0 0.0
03:02 15.0 12.9 87 1021.3 4.5 N 6.9 0.0 0.0
03:03 15.0 12.9 87 1021.5 4.5 N 6.9 0.0 0.0
03:05 15.0 12.9 87 1021.6 4.5 N 6.0 0.0 0.0
03:06 15.0 12.9 87 1021.5 4.5 N 6.0 0.0 0.0
03:07 15.1 13.0 87 1021.5 2.2 N 6.0 0.0 0.0
03:08 15.1 13.0 87 1021.5 3.8 NE 5.4 0.0 0.0
03:09 15.1 13.0 87 1021.4 3.8 NNW 6.9 0.0 0.0
03:10 15.1 13.0 87 1021.6 5.4 NE 6.9 0.0 0.0
03:11 15.1 13.0 87 1021.5 4.5 SW 6.9 0.0 0.0
03:12 15.1 13.0 87 1021.6 6.0 NE 6.9 0.0 0.0
03:13 15.1 13.0 87 1021.3 6.9 N 6.9 0.0 0.0
03:14 15.1 13.0 87 1021.5 5.4 N 6.9 0.0 0.0
03:15 15.1 13.0 87 1021.6 6.0 NE 6.9 0.0 0.0
03:16 15.0 12.9 87 1021.6 6.9 NE 6.9 0.0 0.0
03:17 15.0 12.9 87 1021.6 7.6 NE 7.6 0.0 0.0
03:19 15.0 12.9 87 1021.5 7.6 NE 7.6 0.0 0.0
03:20 15.0 12.9 87 1021.5 7.6 NE 7.6 0.0 0.0
03:21 15.0 12.9 87 1021.4 7.6 NE 7.6 0.0 0.0
03:22 15.0 12.9 87 1021.4 4.5 NE 7.6 0.0 0.0
03:23 15.0 12.9 87 1021.5 3.8 NE 7.6 0.0 0.0
03:24 15.0 12.9 87 1021.4 6.9 E 7.6 0.0 0.0
03:25 15.0 12.9 87 1021.4 4.5 NNW 7.6 0.0 0.0
03:26 15.0 12.9 87 1021.4 5.4 NNW 7.6 0.0 0.0
03:27 15.0 12.9 87 1021.4 5.4 N 7.6 0.0 0.0
03:28 15.0 12.9 87 1021.4 4.5 N 7.6 0.0 0.0
03:29 15.0 12.9 87 1021.4 3.1 NE 7.6 0.0 0.0
03:30 15.0 12.9 87 1021.5 5.4 NE 7.6 0.0 0.0
03:31 15.0 12.9 87 1021.4 4.5 NNW 7.6 0.0 0.0
03:32 15.0 12.9 87 1021.3 3.1 NE 6.9 0.0 0.0
03:34 15.0 12.9 87 1021.3 3.8 N 6.9 0.0 0.0
03:35 15.0 12.9 87 1021.6 2.2 NNW 6.0 0.0 0.0
03:36 15.0 12.9 87 1021.6 2.2 NNW 6.0 0.0 0.0
03:37 15.0 12.9 87 1021.5 3.1 N 6.0 0.0 0.0
03:38 15.0 12.9 87 1021.3 3.1 NNW 6.0 0.0 0.0
03:39 15.0 12.9 87 1021.5 3.8 NE 6.0 0.0 0.0
03:40 15.0 12.9 87 1021.4 3.1 NNW 6.0 0.0 0.0
03:41 15.0 12.9 87 1021.5 3.8 NNW 6.0 0.0 0.0
03:42 15.0 12.9 87 1021.4 3.1 NE 4.5 0.0 0.0
03:43 15.0 12.9 87 1021.4 3.8 N 3.8 0.0 0.0
03:44 15.0 12.9 87 1021.3 4.5 E 4.5 0.0 0.0
03:45 15.0 12.9 87 1021.5 3.8 E 4.5 0.0 0.0
03:46 15.0 12.9 87 1021.5 3.8 E 4.5 0.0 0.0
03:48 15.0 12.9 87 1021.5 3.8 NNW 4.5 0.0 0.0
03:49 15.0 12.9 87 1021.7 3.1 NE 4.5 0.0 0.0
03:50 15.0 12.9 87 1021.4 2.2 N 4.5 0.0 0.0
03:51 15.0 12.9 87 1021.3 3.1 SE 4.5 0.0 0.0
03:52 15.0 12.9 87 1021.5 2.2 E 4.5 0.0 0.0
03:53 15.0 12.9 87 1021.6 3.8 SSW 4.5 0.0 0.0
03:54 15.0 12.9 87 1021.4 3.8 E 4.5 0.0 0.0
03:55 15.0 12.9 87 1021.5 3.8 E 4.5 0.0 0.0
03:56 15.0 12.9 87 1021.7 3.1 NE 4.5 0.0 0.0
03:57 14.9 12.8 87 1021.6 2.2 W 4.5 0.0 0.0
03:58 14.9 12.8 87 1021.6 6.0 NNW 6.0 0.0 0.0
03:59 14.9 12.8 87 1021.7 3.8 E 6.0 0.0 0.0
04:00 14.9 12.8 87 1021.4 3.8 E 6.0 0.0 0.0
04:02 14.9 12.8 87 1021.4 7.6 N 7.6 0.0 0.0
04:03 14.9 12.8 87 1021.6 4.5 NNW 7.6 0.0 0.0
04:04 14.9 12.8 87 1021.6 4.5 NNW 7.6 0.0 0.0
04:05 14.9 12.8 87 1021.4 2.2 NNW 7.6 0.0 0.0
04:06 14.9 12.8 87 1021.4 1.6 SE 7.6 0.0 0.0
04:07 14.9 12.8 87 1021.4 1.6 E 7.6 0.0 0.0
04:08 14.9 12.8 87 1021.4 2.2 NE 7.6 0.0 0.0
04:09 15.0 13.0 88 1021.7 3.1 N 7.6 0.0 0.0
04:10 15.0 13.0 88 1021.5 3.8 N 7.6 0.0 0.0
04:11 15.0 13.0 88 1021.4 3.8 N 7.6 0.0 0.0
04:12 15.0 13.0 88 1021.6 4.5 W 4.5 0.0 0.0
04:13 15.0 13.0 88 1021.2 5.4 E 5.4 0.0 0.0
04:14 15.0 13.0 88 1021.4 5.4 E 5.4 0.0 0.0
04:16 15.0 13.0 88 1021.4 6.0 NNW 6.0 0.0 0.0
04:17 15.0 13.0 88 1021.5 3.8 N 6.0 0.0 0.0
04:18 15.0 13.0 88 1021.5 2.2 NNW 6.0 0.0 0.0
04:19 15.0 13.0 88 1021.5 3.1 NE 6.0 0.0 0.0
04:20 15.0 13.0 88 1021.5 2.2 ENE 6.0 0.0 0.0
04:21 15.0 13.0 88 1021.4 2.2 NW 6.0 0.0 0.0
04:22 15.0 13.0 88 1021.4 3.8 N 6.0 0.0 0.0
04:23 15.0 13.0 88 1021.5 3.8 NNW 6.0 0.0 0.0
04:24 15.0 13.0 88 1021.2 3.8 NE 6.0 0.0 0.0
04:25 15.0 13.0 88 1021.5 3.1 E 6.0 0.0 0.0
04:26 15.0 13.0 88 1021.4 3.1 E 6.0 0.0 0.0
04:27 15.0 13.0 88 1021.5 5.4 E 5.4 0.0 0.0
04:28 15.0 13.0 88 1021.4 3.8 W 5.4 0.0 0.0
04:30 15.0 13.0 88 1021.2 6.0 NE 6.0 0.0 0.0
04:31 15.0 13.0 88 1021.4 5.4 NNW 6.0 0.0 0.0
04:32 15.0 13.0 88 1021.4 5.4 NNW 6.0 0.0 0.0
04:33 15.0 13.0 88 1021.3 3.8 N 6.0 0.0 0.0
04:34 15.0 13.0 88 1021.2 4.5 NE 6.0 0.0 0.0
04:35 15.0 13.0 88 1021.4 4.5 N 6.0 0.0 0.0
04:36 15.0 13.0 88 1021.1 6.0 N 6.0 0.0 0.0
04:37 15.0 13.0 88 1021.5 6.0 NE 6.0 0.0 0.0
04:38 15.0 13.0 88 1021.3 3.8 N 6.0 0.0 0.0
04:39 15.0 13.0 88 1021.4 4.5 N 6.0 0.0 0.0
04:40 15.0 13.0 88 1021.2 4.5 NE 6.0 0.0 0.0
04:41 15.0 13.0 88 1021.3 6.0 NE 6.0 0.0 0.0
04:42 15.0 13.0 88 1021.4 6.0 NNE 6.0 0.0 0.0
04:44 15.0 13.0 88 1021.5 6.0 NNW 6.0 0.0 0.0
04:45 15.0 13.0 88 1021.2 3.8 N 6.0 0.0 0.0
04:46 15.0 13.0 88 1021.3 3.8 N 6.0 0.0 0.0
04:47 15.0 13.0 88 1021.4 3.8 NNW 6.0 0.0 0.0
04:48 15.0 13.0 88 1021.3 4.5 N 6.0 0.0 0.0
04:49 15.0 13.0 88 1021.4 5.4 N 6.0 0.0 0.0
04:50 15.0 13.0 88 1021.5 3.8 NE 6.0 0.0 0.0
04:51 15.0 13.0 88 1021.3 3.1 NNW 6.0 0.0 0.0
04:52 15.0 13.0 88 1021.4 3.8 NE 6.0 0.0 0.0
04:53 15.0 13.0 88 1021.4 3.8 NNW 6.0 0.0 0.0
04:54 15.0 13.0 88 1021.4 3.8 NE 6.0 0.0 0.0
04:55 15.0 13.0 88 1021.3 4.5 NE 5.4 0.0 0.0
04:56 15.0 13.0 88 1021.5 3.8 NNW 5.4 0.0 0.0
04:58 15.0 13.0 88 1021.2 3.8 NE 5.4 0.0 0.0
04:59 15.0 13.0 88 1021.3 4.5 NE 5.4 0.0 0.0
05:00 15.0 13.0 88 1021.3 4.5 NE 4.5 0.0 0.0
05:01 15.0 13.0 88 1021.3 4.5 NE 4.5 0.0 0.0
05:02 15.0 13.0 88 1021.5 4.5 NE 4.5 0.0 0.0
05:03 15.0 13.0 88 1021.4 4.5 NE 4.5 0.0 0.0
05:04 15.0 13.0 88 1021.6 4.5 NE 4.5 0.0 0.0
05:05 15.0 13.0 88 1021.2 4.5 NE 4.5 0.0 0.0
05:06 15.0 13.0 88 1021.5 4.5 NE 4.5 0.0 0.0
05:07 15.0 13.0 88 1021.2 4.5 NE 4.5 0.0 0.0
05:08 14.9 12.9 88 1021.3 4.5 NNW 4.5 0.0 0.0
05:09 14.9 12.9 88 1021.4 4.5 NNW 4.5 0.0 0.0
05:10 14.9 12.9 88 1021.3 3.8 N 4.5 0.0 0.0
05:12 15.0 13.0 88 1021.4 3.1 NW 4.5 0.0 0.0
05:13 15.0 13.0 88 1021.0 6.0 NNW 6.0 0.0 0.0
05:14 15.0 13.0 88 1021.4 5.4 NNW 6.0 0.0 0.0
05:15 15.0 13.0 88 1021.3 5.4 NE 6.0 0.0 0.0
05:16 15.0 13.0 88 1021.3 4.5 NE 6.0 0.0 0.0
05:17 15.0 13.0 88 1021.4 4.5 NW 6.0 0.0 0.0
05:18 15.0 13.0 88 1021.3 3.1 NE 6.0 0.0 0.0
05:19 15.0 13.0 88 1021.5 2.2 N 6.0 0.0 0.0
05:20 15.0 13.0 88 1021.2 4.5 N 6.0 0.0 0.0
05:21 14.9 12.9 88 1021.3 3.1 NE 6.0 0.0 0.0
05:22 14.9 12.9 88 1021.1 3.1 NW 6.0 0.0 0.0
05:23 14.9 12.9 88 1021.4 4.5 NW 6.0 0.0 0.0
05:24 14.9 12.9 88 1021.4 3.8 N 5.4 0.0 0.0
05:26 14.9 12.9 88 1021.3 3.8 NE 4.5 0.0 0.0
05:27 14.9 12.9 88 1021.5 6.0 NE 6.0 0.0 0.0
05:28 14.9 12.9 88 1021.5 6.0 NE 6.0 0.0 0.0
05:29 14.9 12.9 88 1021.5 3.8 N 6.0 0.0 0.0
05:30 14.9 12.9 88 1021.2 3.8 N 6.0 0.0 0.0
05:31 14.9 12.9 88 1021.3 4.5 N 6.0 0.0 0.0
05:32 14.9 12.9 88 1021.5 3.8 E 6.0 0.0 0.0
05:33 14.9 12.9 88 1021.6 3.1 NNW 6.0 0.0 0.0
05:34 14.9 12.9 88 1021.4 3.1 NNW 6.0 0.0 0.0
05:35 14.9 12.9 88 1021.5 3.8 S 6.0 0.0 0.0
05:36 14.9 12.9 88 1021.4 6.9 NNW 6.9 0.0 0.0
05:37 14.9 12.9 88 1021.4 6.9 NNW 6.9 0.0 0.0
05:38 14.9 12.9 88 1021.4 5.4 WNW 6.9 0.0 0.0
05:40 14.9 12.9 88 1021.5 6.0 N 6.9 0.0 0.0
05:41 14.9 12.9 88 1021.5 6.0 N 6.9 0.0 0.0
05:42 14.9 12.9 88 1021.6 5.4 NNW 6.9 0.0 0.0
05:43 14.8 12.8 88 1021.3 5.4 NE 6.9 0.0 0.0
05:44 14.8 12.8 88 1021.5 3.8 NE 6.9 0.0 0.0
05:45 14.8 12.8 88 1021.4 6.0 NNW 6.9 0.0 0.0
05:46 14.8 12.8 88 1021.4 6.9 NNW 6.9 0.0 0.0
05:47 14.8 12.8 88 1021.5 6.9 NE 6.9 0.0 0.0
05:48 14.8 12.8 88 1021.5 6.0 NNW 6.9 0.0 0.0
05:49 14.8 12.8 88 1021.5 7.6 NNW 7.6 0.0 0.0
05:50 14.8 12.8 88 1021.5 8.3 W 8.3 0.0 0.0
05:51 14.8 12.8 88 1021.4 5.4 NE 8.3 0.0 0.0
05:52 14.8 12.8 88 1021.5 6.9 NE 8.3 0.0 0.0
05:54 14.8 12.8 88 1021.6 6.0 NE 8.3 0.0 0.0
05:55 14.8 12.8 88 1021.3 3.1 W 8.3 0.0 0.0
05:56 14.8 12.8 88 1021.3 3.1 W 8.3 0.0 0.0
05:57 14.8 12.8 88 1021.4 6.9 SW 8.3 0.0 0.0
05:58 14.7 12.7 88 1021.6 5.4 NE 8.3 0.0 0.0
05:59 14.7 12.7 88 1021.4 5.4 NNW 8.3 0.0 0.0
06:00 14.7 12.7 88 1021.5 3.8 E 8.3 0.0 0.0
06:01 14.7 12.7 88 1021.6 4.5 NNW 6.9 0.0 0.0
06:02 14.7 12.7 88 1021.5 4.5 NNW 6.9 0.0 0.0
06:03 14.7 12.7 88 1021.4 6.9 NE 6.9 0.0 0.0
06:04 14.7 12.7 88 1021.7 4.5 N 6.9 0.0 0.0
06:05 14.8 12.8 88 1021.4 5.4 NE 6.9 0.0 0.0
06:06 14.8 12.8 88 1021.4 5.4 E 6.9 0.0 0.0
06:08 14.8 12.8 88 1021.5 6.0 W 6.9 0.0 0.0
06:09 14.8 12.8 88 1021.7 6.0 N 6.9 0.0 0.0
06:10 14.8 12.8 88 1021.5 6.0 N 6.9 0.0 0.0
06:11 14.8 12.8 88 1021.5 6.0 NE 6.9 0.0 0.0
06:12 14.8 12.8 88 1021.7 4.5 NE 6.9 0.0 0.0
06:13 14.8 12.8 88 1021.5 3.8 W 6.9 0.0 0.0
06:14 14.8 12.8 88 1021.6 3.8 W 6.9 0.0 0.0
06:15 14.8 12.8 88 1021.5 3.8 W 6.9 0.0 0.0
06:16 14.8 12.8 88 1021.6 3.8 N 6.9 0.0 0.0
06:17 14.8 12.8 88 1021.5 5.4 N 6.9 0.0 0.0
06:18 14.8 12.8 88 1021.6 6.0 NE 6.0 0.0 0.0
06:19 14.8 12.8 88 1021.5 5.4 SE 6.0 0.0 0.0
06:20 14.8 12.8 88 1021.5 2.2 SE 6.0 0.0 0.0
06:22 14.8 12.8 88 1021.5 6.0 NE 6.0 0.0 0.0
06:23 14.8 12.8 88 1021.3 4.5 NE 6.0 0.0 0.0
06:24 14.8 12.8 88 1021.3 4.5 NE 6.0 0.0 0.0
06:25 14.8 12.8 88 1021.4 3.8 SE 6.0 0.0 0.0
06:26 14.8 12.8 88 1021.5 3.8 E 6.0 0.0 0.0
06:27 14.8 12.8 88 1021.5 5.4 E 6.0 0.0 0.0
06:28 14.8 12.8 88 1021.4 5.4 NNW 6.0 0.0 0.0
06:29 14.8 12.8 88 1021.4 3.8 W 6.0 0.0 0.0
06:30 14.8 12.8 88 1021.5 3.1 SW 6.0 0.0 0.0
06:31 14.8 12.8 88 1021.5 3.8 NE 6.0 0.0 0.0
06:32 14.8 12.8 88 1021.7 5.4 NE 6.0 0.0 0.0
06:33 14.8 12.8 88 1021.6 4.5 NE 6.0 0.0 0.0
06:34 14.8 12.8 88 1021.5 7.6 NNE 7.6 0.0 0.0
06:36 14.8 12.8 88 1021.6 6.0 W 9.8 0.0 0.0
06:37 14.8 12.8 88 1021.7 6.0 NNW 9.8 0.0 0.0
06:38 14.8 12.8 88 1021.5 4.5 NE 9.8 0.0 0.0
06:39 14.8 12.8 88 1021.6 6.9 NW 9.8 0.0 0.0
06:40 14.8 12.8 88 1021.7 6.9 N 9.8 0.0 0.0
06:41 14.8 12.8 88 1021.5 4.5 W 9.8 0.0 0.0
06:42 14.8 12.8 88 1021.5 4.5 W 9.8 0.0 0.0
06:43 14.8 12.8 88 1021.7 3.1 NE 9.8 0.0 0.0
06:44 14.8 12.8 88 1021.6 4.5 N 9.8 0.0 0.0
06:45 14.8 12.8 88 1021.8 5.4 N 9.8 0.0 0.0
06:46 14.8 12.8 88 1021.5 8.3 NE 8.3 0.0 0.0
06:47 14.8 12.8 88 1021.6 6.9 NNW 8.3 0.0 0.0
06:48 14.8 12.8 88 1021.5 5.4 N 8.3 0.0 0.0
06:50 14.8 12.8 88 1021.7 4.5 NE 8.3 0.0 0.0
06:51 14.8 12.8 88 1021.7 5.4 NNW 8.3 0.0 0.0
06:52 14.8 12.8 88 1021.7 5.4 NNW 8.3 0.0 0.0
06:53 14.8 12.8 88 1021.9 3.8 NE 8.3 0.0 0.0
06:54 14.8 12.8 88 1021.5 3.8 NE 8.3 0.0 0.0
06:55 14.8 12.8 88 1021.6 3.8 NNW 8.3 0.0 0.0
06:56 14.8 12.8 88 1021.8 3.8 NE 8.3 0.0 0.0
06:57 14.8 12.8 88 1021.7 8.3 NNW 8.3 0.0 0.0
06:58 14.8 12.8 88 1021.7 8.3 NE 8.3 0.0 0.0
06:59 14.8 12.8 88 1021.6 8.3 E 8.3 0.0 0.0
07:00 14.8 12.8 88 1021.6 4.5 NE 8.3 0.0 0.0
07:01 14.8 12.8 88 1021.5 4.5 NE 8.3 0.0 0.0
07:02 14.8 12.8 88 1021.7 6.0 NE 8.3 0.0 0.0
07:04 14.8 13.0 89 1021.6 6.0 N 8.3 0.0 0.0
07:05 14.8 13.0 89 1021.6 4.5 E 8.3 0.0 0.0
07:06 14.8 13.0 89 1021.5 4.5 N 8.3 0.0 0.0
07:07 14.8 13.0 89 1021.8 4.5 NE 8.3 0.0 0.0
07:08 14.8 13.0 89 1021.7 5.4 E 8.3 0.0 0.0
07:09 14.8 13.0 89 1021.8 3.8 NNW 8.3 0.0 0.0
07:10 14.8 13.0 89 1021.6 4.5 N 6.9 0.0 0.0
07:11 14.8 13.0 89 1021.8 4.5 NE 6.9 0.0 0.0
07:12 14.8 13.0 89 1021.8 5.4 NE 6.9 0.0 0.0
07:13 14.8 13.0 89 1021.9 4.5 NW 6.9 0.0 0.0
07:14 14.8 13.0 89 1021.8 4.5 N 6.0 0.0 0.0
07:15 14.9 13.1 89 1021.8 5.4 NE 6.0 0.0 0.0
07:16 14.9 13.1 89 1021.7 6.9 NE 6.9 0.0 0.0
07:18 14.9 13.1 89 1021.9 4.5 ENE 6.9 0.0 0.0
07:19 14.9 13.1 89 1021.8 2.2 E 6.9 0.0 0.0
07:20 14.9 13.1 89 1021.8 2.2 E 6.9 0.0 0.0
07:21 14.9 13.1 89 1021.7 3.8 NE 6.9 0.0 0.0
07:22 14.9 13.1 89 1021.7 3.1 NE 6.9 0.0 0.0
07:23 14.9 13.1 89 1021.7 6.0 NE 6.9 0.0 0.0
07:24 14.9 13.1 89 1021.8 6.0 N 6.9 0.0 0.0
07:25 14.9 13.1 89 1021.6 3.8 E 6.9 0.0 0.0
07:26 14.9 13.1 89 1021.7 5.4 E 6.9 0.0 0.0
07:27 14.9 13.1 89 1021.7 6.9 NW 6.9 0.0 0.0
07:28 15.0 13.2 89 1021.8 5.4 NW 6.9 0.0 0.0
07:29 15.0 13.2 89 1021.8 6.0 E 6.9 0.0 0.0
07:30 15.0 13.2 89 1021.8 5.4 E 6.9 0.0 0.0
07:32 15.0 13.2 89 1021.6 4.5 NNW 6.9 0.0 0.0
07:33 15.0 13.2 89 1021.8 6.9 NNW 6.9 0.0 0.0
07:34 15.0 13.2 89 1021.8 5.4 NNW 6.9 0.0 0.0
07:35 15.0 13.2 89 1021.7 9.2 NNW 9.2 0.0 0.0
07:36 15.0 13.2 89 1021.9 9.2 NNW 9.2 0.0 0.0
07:37 15.0 13.2 89 1021.8 4.5 NNW 9.2 0.0 0.0
07:38 15.0 13.2 89 1021.9 4.5 NNW 9.2 0.0 0.0
07:39 15.0 13.2 89 1021.9 6.0 NNW 9.2 0.0 0.0
07:40 15.0 13.2 89 1021.8 5.4 NNW 9.2 0.0 0.0
07:41 15.0 13.2 89 1021.9 3.1 NNW 9.2 0.0 0.0
07:42 15.0 13.2 89 1021.8 4.5 NE 9.2 0.0 0.0
07:43 15.1 13.3 89 1021.8 4.5 E 9.2 0.0 0.0
07:44 15.1 13.3 89 1021.8 6.0 E 9.2 0.0 0.0
07:46 15.1 13.3 89 1022.0 4.5 N 6.0 0.0 0.0
07:47 15.1 13.3 89 1022.1 4.5 NNW 6.0 0.0 0.0
07:48 15.1 13.3 89 1022.1 4.5 NNW 6.0 0.0 0.0
07:49 15.1 13.3 89 1022.1 6.0 NE 6.0 0.0 0.0
07:50 15.1 13.3 89 1021.9 4.5 NE 6.0 0.0 0.0
07:51 15.2 13.4 89 1021.8 4.5 E 6.0 0.0 0.0
07:52 15.2 13.4 89 1022.1 3.8 E 6.0 0.0 0.0
07:53 15.2 13.4 89 1022.1 4.5 NE 6.0 0.0 0.0
07:54 15.2 13.4 89 1022.1 4.5 NNW 6.0 0.0 0.0
07:55 15.2 13.4 89 1021.9 7.6 N 7.6 0.0 0.0
07:56 15.2 13.4 89 1022.1 6.9 SE 7.6 0.0 0.0
07:57 15.2 13.4 89 1022.1 4.5 E 7.6 0.0 0.0
08:00 15.2 13.4 89 1021.9 5.4 NE 7.6 0.0 0.0
08:01 15.2 13.4 89 1021.9 5.4 NE 7.6 0.0 0.0
08:02 15.2 13.4 89 1022.1 6.9 NE 7.6 0.0 0.0
08:03 15.3 13.5 89 1022.1 8.3 E 8.3 0.0 0.0
08:04 15.3 13.5 89 1022.2 8.3 NNW 8.3 0.0 0.0
08:05 15.3 13.5 89 1021.9 5.4 NE 8.3 0.0 0.0
08:06 15.3 13.5 89 1022.1 5.4 NE 8.3 0.0 0.0
08:07 15.3 13.7 90 1022.2 3.8 N 8.3 0.0 0.0
08:08 15.3 13.7 90 1022.0 3.8 NE 8.3 0.0 0.0
08:09 15.3 13.7 90 1021.9 5.4 NE 8.3 0.0 0.0
08:10 15.3 13.7 90 1022.0 6.0 NNE 8.3 0.0 0.0
08:11 15.3 13.7 90 1022.2 6.0 NE 8.3 0.0 0.0
08:12 15.3 13.7 90 1022.2 5.4 NE 8.3 0.0 0.0
08:14 15.3 13.7 90 1022.1 6.9 NE 6.9 0.0 0.0
08:15 15.3 13.7 90 1022.1 5.4 NE 6.9 0.0 0.0
08:16 15.3 13.7 90 1022.1 5.4 NE 6.9 0.0 0.0
08:17 15.3 13.7 90 1022.2 6.0 N 6.9 0.0 0.0
08:18 15.3 13.7 90 1022.1 3.8 NW 6.9 0.0 0.0
08:19 15.4 13.8 90 1022.1 4.5 SE 6.9 0.0 0.0
08:20 15.4 13.8 90 1022.2 6.9 ENE 6.9 0.0 0.0
08:21 15.4 13.8 90 1022.2 7.6 NE 7.6 0.0 0.0
08:22 15.4 13.8 90 1022.2 6.9 E 7.6 0.0 0.0
08:23 15.4 13.8 90 1022.1 7.6 NNW 7.6 0.0 0.0
08:24 15.4 13.8 90 1022.1 6.0 NNW 7.6 0.0 0.0
08:25 15.4 13.8 90 1022.1 6.9 NE 7.6 0.0 0.0
08:26 15.4 13.8 90 1022.1 6.9 NNW 7.6 0.0 0.0
08:28 15.5 13.9 90 1022.2 6.0 NE 7.6 0.0 0.0
08:29 15.5 13.9 90 1022.3 6.0 E 7.6 0.0 0.0
08:30 15.5 13.9 90 1022.4 5.4 NE 7.6 0.0 0.0
08:31 15.5 13.9 90 1022.2 5.4 NW 7.6 0.0 0.0
08:32 15.5 13.9 90 1022.1 3.8 SE 7.6 0.0 0.0
08:33 15.5 13.9 90 1022.4 4.5 E 7.6 0.0 0.0
08:34 15.5 13.9 90 1022.1 4.5 N 6.9 0.0 0.0
08:35 15.5 13.9 90 1022.3 6.9 NE 6.9 0.0 0.0
08:36 15.5 13.9 90 1022.1 5.4 NE 6.9 0.0 0.0
08:37 15.5 13.9 90 1022.2 5.4 NE 6.9 0.0 0.0
08:38 15.5 13.9 90 1022.3 4.5 NE 6.9 0.0 0.0
08:39 15.6 14.0 90 1022.3 8.3 NE 8.3 0.0 0.0
08:40 15.6 14.0 90 1022.2 8.3 NE 8.3 0.0 0.0
08:42 15.6 14.0 90 1022.3 7.6 NE 9.2 0.0 0.0
08:43 15.6 14.0 90 1022.2 6.0 NE 9.2 0.0 0.0
08:44 15.6 14.0 90 1022.2 6.0 NE 9.2 0.0 0.0
08:45 15.6 14.0 90 1022.2 6.9 NE 9.2 0.0 0.0
08:46 15.6 14.0 90 1022.2 6.9 NE 9.2 0.0 0.0
08:47 15.6 14.0 90 1022.3 6.0 E 9.2 0.0 0.0
08:48 15.6 14.0 90 1022.4 8.3 NE 9.2 0.0 0.0
08:49 15.6 14.0 90 1022.2 4.5 E 9.2 0.0 0.0
08:50 15.6 14.0 90 1022.3 4.5 E 9.2 0.0 0.0
08:51 15.6 14.0 90 1022.3 6.9 NNW 9.2 0.0 0.0
08:52 15.6 14.0 90 1022.2 5.4 NE 8.3 0.0 0.0
08:53 15.6 14.0 90 1022.2 6.0 N 8.3 0.0 0.0
08:54 15.6 14.0 90 1022.2 4.5 NE 8.3 0.0 0.0
08:56 15.7 14.1 90 1022.4 6.9 E 8.3 0.0 0.0
08:57 15.7 14.1 90 1022.2 5.4 NNW 8.3 0.0 0.0
08:58 15.7 14.1 90 1022.2 5.4 NE 8.3 0.0 0.0
08:59 15.8 14.2 90 1022.3 4.5 NNW 6.9 0.0 0.0
09:00 15.8 14.2 90 1022.3 3.8 E 6.9 0.0 0.0
09:01 15.8 14.2 90 1022.2 3.8 E 6.9 0.0 0.0
09:02 15.8 14.2 90 1022.3 6.0 E 6.9 0.0 0.0
09:03 15.9 14.3 90 1022.5 3.8 N 6.9 0.0 0.0
09:04 15.9 14.3 90 1022.4 5.4 NE 6.9 0.0 0.0
09:05 16.0 14.4 90 1022.3 5.4 N 6.9 0.0 0.0
09:06 16.0 14.4 90 1022.5 5.4 NE 6.9 0.0 0.0
09:07 16.0 14.4 90 1022.4 3.8 E 6.0 0.0 0.0
09:08 16.1 14.5 90 1022.5 6.0 N 6.0 0.0 0.0
09:10 16.1 14.5 90 1022.3 5.4 NNW 6.9 0.0 0.0
09:11 16.1 14.5 90 1022.3 6.0 NE 6.9 0.0 0.0
09:12 16.1 14.5 90 1022.3 6.0 NE 6.9 0.0 0.0
09:13 16.1 14.5 90 1022.3 6.9 NE 6.9 0.0 0.0
09:14 16.1 14.5 90 1022.4 6.9 NE 6.9 0.0 0.0
09:15 16.1 14.5 90 1022.3 5.4 NE 6.9 0.0 0.0
09:16 16.1 14.5 90 1022.5 6.9 E 6.9 0.0 0.0
09:17 16.1 14.5 90 1022.5 6.0 E 6.9 0.0 0.0
09:18 16.1 14.5 90 1022.5 4.5 NE 6.9 0.0 0.0
09:19 16.1 14.5 90 1022.6 4.5 E 6.9 0.0 0.0
09:20 16.1 14.5 90 1022.5 5.4 N 6.9 0.0 0.0
09:21 16.1 14.5 90 1022.6 4.5 NE 6.9 0.0 0.0
09:22 16.1 14.5 90 1022.6 6.9 NNE 6.9 0.0 0.0
09:24 16.1 14.5 90 1022.6 5.4 NNW 6.9 0.0 0.0
09:25 16.2 14.6 90 1022.6 3.8 NNW 6.9 0.0 0.0
09:26 16.2 14.6 90 1022.5 3.8 E 6.9 0.0 0.0
09:27 16.2 14.6 90 1022.5 6.0 NE 6.9 0.0 0.0
09:28 16.2 14.6 90 1022.8 5.4 NE 6.9 0.0 0.0
09:29 16.1 14.5 90 1022.6 5.4 E 6.9 0.0 0.0
09:30 16.1 14.5 90 1022.5 5.4 NE 6.9 0.0 0.0
09:31 16.1 14.5 90 1022.4 5.4 NE 6.9 0.0 0.0
09:32 16.1 14.5 90 1022.4 5.4 NE 6.9 0.0 0.0
09:33 16.1 14.5 90 1022.6 5.4 NE 6.0 0.0 0.0
09:34 16.1 14.5 90 1022.6 5.4 E 6.0 0.0 0.0
09:35 16.1 14.5 90 1022.6 6.0 NE 6.0 0.0 0.0
09:36 16.1 14.5 90 1022.8 4.5 NNW 6.0 0.0 0.0
09:38 16.2 14.6 90 1022.5 5.4 NNW 6.0 0.0 0.0
09:39 16.2 14.6 90 1022.7 4.5 NE 6.9 0.0 0.0
09:40 16.2 14.6 90 1022.7 4.5 NE 6.9 0.0 0.0
09:41 16.3 14.7 90 1022.7 4.5 E 6.9 0.0 0.0
09:42 16.3 14.7 90 1022.7 4.5 NNW 6.9 0.0 0.0
09:43 16.3 14.8 91 1022.6 6.0 NE 6.9 0.0 0.0
09:44 16.3 14.8 91 1022.7 6.0 NE 6.9 0.0 0.0
09:45 16.4 14.9 91 1022.7 6.9 NE 6.9 0.0 0.0
09:46 16.4 14.9 91 1022.8 2.2 NE 6.9 0.0 0.0
09:47 16.5 15.0 91 1022.7 3.8 W 6.9 0.0 0.0
09:48 16.5 15.0 91 1022.9 5.4 N 7.6 0.0 0.0
09:49 16.5 15.0 91 1022.9 6.0 E 7.6 0.0 0.0
09:50 16.6 15.1 91 1022.8 5.4 NE 7.6 0.0 0.0
09:52 16.6 15.1 91 1022.9 6.0 NNW 7.6 0.0 0.0
09:53 16.6 15.1 91 1022.7 6.9 SE 7.6 0.0 0.0
09:54 16.6 15.1 91 1022.7 6.9 NE 7.6 0.0 0.0
09:55 16.6 15.1 91 1022.8 5.4 NNW 7.6 0.0 0.0
09:56 16.6 15.1 91 1022.9 3.8 N 7.6 0.0 0.0
09:57 16.7 15.2 91 1023.0 4.5 NNW 7.6 0.0 0.0
09:58 16.7 15.2 91 1022.8 3.8 N 6.9 0.0 0.0
09:59 16.7 15.2 91 1022.8 4.5 N 6.9 0.0 0.0
10:00 16.7 15.2 91 1022.8 4.5 N 6.9 0.0 0.0
10:01 16.7 15.2 91 1022.8 4.5 N 6.9 0.0 0.0
10:02 16.7 15.2 91 1022.8 4.5 N 6.9 0.0 0.0
10:03 16.7 15.2 91 1022.6 4.5 N 6.9 0.0 0.0
10:04 16.7 15.2 91 1022.8 4.5 N 5.4 0.0 0.0
10:06 16.8 15.3 91 1022.8 3.8 NNE 7.6 0.0 0.0
10:07 16.8 15.3 91 1023.0 5.4 NNW 7.6 0.0 0.0
10:08 16.8 15.3 91 1023.0 5.4 NNW 7.6 0.0 0.0
10:09 16.9 15.4 91 1022.7 5.4 NE 7.6 0.0 0.0
10:10 16.9 15.4 91 1022.7 6.0 NE 7.6 0.0 0.0
10:11 16.9 15.4 91 1022.8 6.0 NE 7.6 0.0 0.0
10:12 16.9 15.4 91 1022.9 5.4 N 7.6 0.0 0.0
10:13 17.0 15.5 91 1022.7 5.4 NNW 7.6 0.0 0.0
10:14 17.0 15.5 91 1023.0 3.1 NNW 7.6 0.0 0.0
10:15 17.0 15.5 91 1023.1 4.5 NNW 7.6 0.0 0.0
10:16 17.0 15.5 91 1022.7 5.4 NE 6.0 0.0 0.0
10:17 17.1 15.6 91 1022.9 6.0 NNW 6.0 0.0 0.0
10:18 17.1 15.6 91 1023.1 3.8 N 6.0 0.0 0.0
10:20 17.1 15.6 91 1023.1 5.4 NE 6.0 0.0 0.0
10:21 17.2 15.7 91 1023.0 6.9 E 6.9 0.0 0.0
10:22 17.2 15.7 91 1022.9 5.4 WNW 6.9 0.0 0.0
10:23 17.2 15.7 91 1022.9 5.4 W 6.9 0.0 0.0
10:24 17.2 15.7 91 1022.9 6.0 W 6.9 0.0 0.0
10:25 17.3 15.8 91 1022.9 8.3 NNW 8.3 0.0 0.0
10:26 17.3 15.8 91 1023.0 5.4 N 8.3 0.0 0.0
10:27 17.3 15.8 91 1023.0 4.5 WSW 8.3 0.0 0.0
10:28 17.3 15.8 91 1023.0 4.5 NNW 8.3 0.0 0.0
10:29 17.3 15.8 91 1023.0 4.5 N 8.3 0.0 0.0
10:30 17.4 15.9 91 1023.0 3.8 N 8.3 0.0 0.0
10:31 17.4 15.9 91 1023.1 4.5 NNW 8.3 0.0 0.0
10:32 17.4 15.9 91 1022.8 5.4 NE 8.3 0.0 0.0
10:34 17.5 15.5 88 1023.1 5.4 NE 8.3 0.0 0.0
10:35 17.6 15.6 88 1023.1 6.0 N 8.3 0.0 0.0
10:36 17.6 15.6 88 1023.1 6.0 N 6.0 0.0 0.0
10:37 17.6 15.6 88 1022.8 4.5 NNW 6.0 0.0 0.0
10:38 17.7 15.7 88 1023.1 3.8 N 6.0 0.0 0.0
10:39 17.7 15.7 88 1023.1 3.1 NNW 6.0 0.0 0.0
10:40 17.7 15.7 88 1023.0 3.1 NNW 6.0 0.0 0.0
10:41 17.7 15.7 88 1023.0 8.3 N 8.3 0.0 0.0
10:42 17.7 15.7 88 1023.0 5.4 NNW 8.3 0.0 0.0
10:43 17.8 15.8 88 1023.1 4.5 NNW 8.3 0.0 0.0
10:44 17.8 15.6 87 1023.1 4.5 NNW 8.3 0.0 0.0
10:45 17.9 15.7 87 1023.0 5.4 NNW 8.3 0.0 0.0
10:46 17.9 15.5 86 1023.1 7.6 N 8.3 0.0 0.0
10:48 18.0 15.5 85 1023.1 7.6 N 8.3 0.0 0.0
10:49 18.0 15.5 85 1023.2 7.6 N 8.3 0.0 0.0
10:50 18.0 15.3 84 1023.1 6.9 N 8.3 0.0 0.0
10:51 18.0 15.3 84 1023.1 6.0 N 8.3 0.0 0.0
10:52 18.0 15.3 84 1022.9 6.0 N 7.6 0.0 0.0
10:53 18.1 15.0 82 1023.1 6.0 N 7.6 0.0 0.0
10:54 18.1 15.0 82 1023.0 5.4 N 7.6 0.0 0.0
10:55 18.1 15.0 82 1023.1 7.6 NNW 7.6 0.0 0.0
10:56 18.2 15.1 82 1023.2 6.9 NE 7.6 0.0 0.0
10:57 18.3 15.0 81 1023.2 4.5 N 7.6 0.0 0.0
10:58 18.3 15.0 81 1023.0 7.6 S 7.6 0.0 0.0
10:59 18.3 15.0 81 1023.1 7.6 NNW 7.6 0.0 0.0
11:00 18.3 15.0 81 1023.1 7.6 NNW 7.6 0.0 0.0
11:02 18.3 15.0 81 1023.3 7.6 NNW 7.6 0.0 0.0
11:03 18.3 15.0 81 1023.1 7.6 NNW 7.6 0.0 0.0
11:04 18.3 15.0 81 1023.1 7.6 NNW 7.6 0.0 0.0
11:05 18.4 14.7 79 1023.0 7.6 N 7.6 0.0 0.0
11:06 18.4 14.7 79 1023.0 8.3 NNW 8.3 0.0 0.0
11:07 18.5 14.8 79 1023.0 8.3 NNW 8.3 0.0 0.0
11:08 18.5 14.8 79 1023.1 6.9 S 8.3 0.0 0.0
11:09 18.4 14.5 78 1023.0 5.4 NNW 8.3 0.0 0.0
11:10 18.4 14.5 78 1023.3 4.5 N 8.3 0.0 0.0
11:11 18.4 14.3 77 1023.2 6.0 N 8.3 0.0 0.0
11:12 18.4 14.3 77 1022.9 7.6 NE 8.3 0.0 0.0
11:13 18.4 14.3 77 1022.9 6.0 NE 8.3 0.0 0.0
11:14 18.4 14.3 77 1023.1 4.5 N 8.3 0.0 0.0
11:15 18.4 14.3 77 1023.2 8.3 NNW 8.3 0.0 0.0
11:16 18.5 14.4 77 1023.1 8.3 NE 8.3 0.0 0.0
11:17 18.6 14.5 77 1023.0 5.4 NE 8.3 0.0 0.0
11:18 18.7 14.8 78 1022.9 3.8 N 8.3 0.0 0.0
11:19 18.8 14.9 78 1023.0 6.9 E 8.3 0.0 0.0
11:20 18.9 15.0 78 1023.1 6.0 E 8.3 0.0 0.0
11:22 19.1 15.2 78 1023.2 4.5 N 8.3 0.0 0.0
11:23 19.2 15.1 77 1023.1 4.5 N 8.3 0.0 0.0
11:24 19.2 15.1 77 1023.1 4.5 N 8.3 0.0 0.0
11:25 19.3 15.0 76 1023.0 7.6 NW 8.3 0.0 0.0
11:26 19.2 14.9 76 1022.9 7.6 NE 8.3 0.0 0.0
11:27 19.2 14.7 75 1023.1 6.0 NNW 7.6 0.0 0.0
11:28 19.2 14.7 75 1023.1 6.0 NNW 7.6 0.0 0.0
11:29 19.0 14.5 75 1023.0 7.6 NNW 7.6 0.0 0.0
11:30 19.0 14.5 75 1023.1 7.6 NNW 7.6 0.0 0.0
11:31 19.0 14.5 75 1023.3 6.0 W 7.6 0.0 0.0
11:32 19.0 14.5 75 1023.1 10.7 NE 10.7 0.0 0.0
11:33 19.0 14.5 75 1023.1 10.7 NNW 10.7 0.0 0.0
11:34 19.0 14.5 75 1022.9 10.7 NNW 10.7 0.0 0.0
11:36 18.9 14.2 74 1023.2 7.6 NE 10.7 0.0 0.0
11:37 18.9 14.2 74 1023.1 8.3 NNW 10.7 0.0 0.0
11:38 18.9 14.2 74 1023.1 6.9 W 10.7 0.0 0.0
11:39 19.0 14.5 75 1023.0 3.1 NNW 10.7 0.0 0.0
11:40 19.0 14.5 75 1023.2 7.6 NE 10.7 0.0 0.0
11:41 19.1 14.6 75 1023.2 5.4 NE 10.7 0.0 0.0
11:42 19.2 14.7 75 1023.2 6.0 SW 10.7 0.0 0.0
11:43 19.2 14.7 75 1022.9 6.0 SW 10.7 0.0 0.0
11:44 19.3 14.8 75 1023.0 6.0 NE 10.7 0.0 0.0
11:45 19.3 14.6 74 1023.0 6.9 NE 9.8 0.0 0.0
11:46 19.3 14.6 74 1023.1 6.0 NE 8.3 0.0 0.0
11:47 19.3 14.6 74 1023.0 9.8 NE 9.8 0.0 0.0
11:50 19.2 14.5 74 1023.2 9.2 N 9.8 0.0 0.0
11:51 19.2 14.5 74 1023.0 9.8 NE 9.8 0.0 0.0
11:52 19.2 14.5 74 1023.0 9.8 NE 9.8 0.0 0.0
11:53 19.3 14.6 74 1023.1 8.3 E 9.8 0.0 0.0
11:54 19.3 14.6 74 1023.2 9.2 E 9.8 0.0 0.0
11:55 19.3 14.6 74 1023.4 6.9 NNW 9.8 0.0 0.0
11:56 19.3 14.6 74 1023.3 6.0 N 9.8 0.0 0.0
11:57 19.4 14.7 74 1023.2 6.0 N 9.8 0.0 0.0
11:58 19.4 14.7 74 1023.3 5.4 NW 9.8 0.0 0.0
11:59 19.6 15.1 75 1023.2 6.9 E 9.8 0.0 0.0
12:00 19.6 15.1 75 1023.2 6.9 E 9.8 0.0 0.0
12:01 19.6 15.1 75 1023.0 6.9 E 9.8 0.0 0.0
12:02 19.6 15.1 75 1023.1 6.9 E 9.2 0.0 0.0
12:04 19.6 15.1 75 1023.0 6.9 E 6.9 0.0 0.0
12:05 19.9 14.9 73 1023.0 9.2 NE 9.2 0.0 0.0
12:06 19.9 14.9 73 1023.1 9.2 N 9.2 0.0 0.0
12:07 19.9 14.7 72 1023.3 9.2 N 9.2 0.0 0.0
12:08 20.0 15.0 73 1023.2 3.8 NNW 9.2 0.0 0.0
12:09 20.1 15.1 73 1023.1 8.3 NE 9.2 0.0 0.0
12:10 20.1 15.1 73 1023.3 4.5 N 9.2 0.0 0.0
12:11 20.1 15.1 73 1023.0 6.9 N 9.2 0.0 0.0
12:12 20.1 15.1 73 1023.2 6.0 N 9.2 0.0 0.0
12:13 20.2 15.2 73 1023.1 6.9 NE 9.2 0.0 0.0
12:14 20.2 15.2 73 1023.0 6.9 NE 9.2 0.0 0.0
12:15 20.1 14.9 72 1023.0 6.9 N 9.2 0.0 0.0
12:16 20.1 14.9 72 1023.2 6.9 N 9.2 0.0 0.0
12:17 20.1 14.9 72 1023.1 8.3 ENE 8.3 0.0 0.0
12:19 20.0 14.8 72 1023.1 7.6 N 8.3 0.0 0.0
12:20 20.1 14.9 72 1023.2 7.6 N 8.3 0.0 0.0
12:21 20.2 15.2 73 1023.0 6.0 N 8.3 0.0 0.0
12:22 20.3 15.3 73 1023.0 5.4 SW 8.3 0.0 0.0
12:23 20.3 15.3 73 1023.1 5.4 SW 8.3 0.0 0.0
12:24 20.3 15.1 72 1023.1 7.6 N 8.3 0.0 0.0
12:25 20.2 15.0 72 1023.2 6.0 NE 8.3 0.0 0.0
12:26 20.2 14.8 71 1023.3 6.0 NE 8.3 0.0 0.0
12:27 20.2 14.8 71 1023.1 5.4 N 8.3 0.0 0.0
12:28 20.2 15.0 72 1023.2 7.6 SW 7.6 0.0 0.0
12:29 20.2 15.0 72 1023.1 7.6 N 7.6 0.0 0.0
12:30 20.2 15.0 72 1023.3 3.8 NE 7.6 0.0 0.0
12:31 20.2 15.0 72 1023.2 4.5 N 7.6 0.0 0.0
12:33 20.3 15.3 73 1023.0 5.4 N 7.6 0.0 0.0
12:34 20.4 15.4 73 1023.0 5.4 E 7.6 0.0 0.0
12:35 20.5 15.5 73 1023.2 6.0 E 7.6 0.0 0.0
12:36 20.6 15.6 73 1023.1 6.0 NW 7.6 0.0 0.0
12:37 20.6 15.4 72 1023.2 6.0 NE 7.6 0.0 0.0
12:38 20.7 15.5 72 1023.2 5.4 NE 7.6 0.0 0.0
12:39 20.7 15.5 72 1023.1 7.6 N 7.6 0.0 0.0
12:40 20.6 15.2 71 1023.2 7.6 NE 7.6 0.0 0.0
12:41 20.5 15.1 71 1023.4 9.8 NE 9.8 0.0 0.0
12:42 20.5 15.1 71 1022.9 6.9 N 9.8 0.0 0.0
12:43 20.5 15.1 71 1023.0 6.9 NE 9.8 0.0 0.0
12:44 20.5 15.1 71 1023.0 3.8 E 9.8 0.0 0.0
12:45 20.5 15.1 71 1022.9 6.0 NNW 9.8 0.0 0.0
12:47 20.5 15.1 71 1023.2 6.0 NW 9.8 0.0 0.0
12:48 20.5 15.1 71 1023.1 9.2 NW 9.8 0.0 0.0
12:49 20.5 15.1 71 1023.3 9.2 N 9.8 0.0 0.0
12:50 20.5 15.3 72 1023.2 4.5 NNW 9.8 0.0 0.0
12:51 20.6 15.4 72 1023.0 7.6 E 9.8 0.0 0.0
12:52 20.6 15.4 72 1023.1 7.6 E 9.2 0.0 0.0
12:53 20.4 15.0 71 1023.3 6.9 NW 9.2 0.0 0.0
12:54 20.4 15.0 71 1023.0 6.9 NW 9.2 0.0 0.0
12:55 20.3 14.9 71 1023.2 11.4 NE 11.4 0.0 0.0
12:56 20.3 14.9 71 1023.1 11.4 N 11.4 0.0 0.0
12:57 20.3 14.9 71 1023.3 6.0 W 11.4 0.0 0.0
12:58 20.4 15.2 72 1023.0 6.9 N 11.4 0.0 0.0
12:59 20.4 15.0 71 1023.2 7.6 N 11.4 0.0 0.0
13:01 20.4 15.0 71 1023.2 7.6 N 11.4 0.0 0.0
13:02 20.4 15.0 71 1023.1 7.6 N 11.4 0.0 0.0
13:03 20.1 14.7 71 1023.2 6.0 NW 11.4 0.0 0.0
13:04 20.1 14.7 71 1023.1 6.0 N 11.4 0.0 0.0
13:05 20.1 14.7 71 1023.2 7.6 N 11.4 0.0 0.0
13:06 20.2 15.0 72 1023.2 6.0 N 7.6 0.0 0.0
13:07 20.2 15.0 72 1022.9 7.6 NE 7.6 0.0 0.0
13:08 20.2 15.0 72 1023.2 7.6 NE 7.6 0.0 0.0
13:09 20.3 15.1 72 1023.1 6.9 NW 7.6 0.0 0.0
13:10 20.3 14.9 71 1023.1 6.9 NE 7.6 0.0 0.0
13:11 20.2 14.8 71 1023.2 6.9 NW 7.6 0.0 0.0
13:13 20.2 14.8 71 1023.1 6.9 N 7.6 0.0 0.0
13:14 20.2 14.8 71 1023.0 5.4 N 7.6 0.0 0.0
13:15 20.2 14.8 71 1023.3 5.4 W 7.6 0.0 0.0
13:16 20.2 15.0 72 1023.3 9.8 SW 9.8 0.0 0.0
13:17 20.2 15.0 72 1023.1 9.8 SW 9.8 0.0 0.0
13:18 20.3 15.1 72 1023.2 7.6 W 9.8 0.0 0.0
13:20 20.5 15.1 71 1023.3 7.6 NE 9.8 0.0 0.0
13:21 20.5 15.1 71 1023.2 6.9 N 9.8 0.0 0.0
13:22 20.6 15.2 71 1023.2 5.4 NE 9.8 0.0 0.0
13:23 20.6 15.2 71 1023.1 9.2 E 9.8 0.0 0.0
13:24 20.7 15.3 71 1023.3 6.9 N 9.8 0.0 0.0
13:25 20.9 15.5 71 1023.1 7.6 E 9.8 0.0 0.0
13:26 21.0 15.6 71 1023.0 7.6 NW 9.8 0.0 0.0
13:27 21.1 15.9 72 1022.9 5.4 E 9.8 0.0 0.0
13:28 21.2 15.7 71 1023.0 5.4 NE 9.2 0.0 0.0
13:29 21.1 15.4 70 1022.9 4.5 E 9.2 0.0 0.0
13:30 21.1 15.4 70 1023.1 5.4 NE 9.2 0.0 0.0
13:31 21.2 15.5 70 1023.0 5.4 E 9.2 0.0 0.0
13:32 21.2 15.5 70 1023.1 6.9 N 9.2 0.0 0.0
13:34 21.3 15.6 70 1023.0 8.3 W 9.2 0.0 0.0
13:35 21.2 15.5 70 1023.1 7.6 SW 9.2 0.0 0.0
13:36 21.1 15.2 69 1023.0 8.3 W 9.2 0.0 0.0
13:37 21.1 15.2 69 1023.0 8.3 W 9.2 0.0 0.0
13:38 21.0 15.3 70 1022.9 3.8 SE 9.2 0.0 0.0
13:39 21.0 15.3 70 1022.9 4.5 N 8.3 0.0 0.0
13:40 20.9 15.2 70 1022.9 6.0 NE 8.3 0.0 0.0
13:41 20.9 15.2 70 1023.0 8.3 NE 8.3 0.0 0.0
13:42 20.9 15.2 70 1023.0 8.3 NE 8.3 0.0 0.0
13:43 20.9 15.2 70 1022.8 8.3 N 8.3 0.0 0.0
13:44 21.0 15.3 70 1023.0 5.4 NE 8.3 0.0 0.0
13:45 21.0 15.3 70 1023.2 8.3 NW 8.3 0.0 0.0
13:46 21.1 15.4 70 1023.1 4.5 NE 8.3 0.0 0.0
13:47 21.3 15.8 71 1022.9 8.3 NW 8.3 0.0 0.0
13:49 21.5 16.0 71 1022.9 6.9 NW 8.3 0.0 0.0
13:50 21.6 16.1 71 1023.0 6.9 NE 8.3 0.0 0.0
13:51 21.8 16.1 70 1023.1 6.0 NW 8.3 0.0 0.0
13:52 21.8 16.1 70 1023.1 6.0 NW 8.3 0.0 0.0
13:53 21.9 16.2 70 1022.9 6.9 W 8.3 0.0 0.0
13:54 21.9 16.2 70 1022.9 7.6 NW 8.3 0.0 0.0
13:55 21.9 16.0 69 1023.0 8.3 N 8.3 0.0 0.0
13:56 21.9 16.0 69 1022.9 6.9 NE 8.3 0.0 0.0
13:57 21.8 15.6 68 1023.1 5.4 N 8.3 0.0 0.0
13:58 21.8 15.6 68 1023.0 5.4 NE 8.3 0.0 0.0
13:59 21.8 15.9 69 1022.9 6.0 N 8.3 0.0 0.0
14:00 21.8 15.9 69 1022.9 6.0 NE 8.3 0.0 0.0
14:01 21.8 15.9 69 1023.0 6.0 NE 8.3 0.0 0.0
14:02 21.8 15.9 69 1022.8 6.0 NE 8.3 0.0 0.0
14:03 21.8 15.9 69 1022.8 6.0 NE 8.3 0.0 0.0
14:04 21.8 15.9 69 1022.9 6.0 NE 8.3 0.0 0.0
14:05 22.0 15.8 68 1022.8 9.8 NE 9.8 0.0 0.0
14:06 22.0 15.8 68 1023.0 5.4 NE 9.8 0.0 0.0
14:08 22.0 15.8 68 1022.9 5.4 N 9.8 0.0 0.0
14:09 22.0 15.8 68 1022.9 6.0 N 9.8 0.0 0.0
14:10 22.0 15.6 67 1023.0 7.6 N 9.8 0.0 0.0
14:11 21.9 15.5 67 1022.9 6.9 NE 9.8 0.0 0.0
14:12 21.9 15.3 66 1022.8 6.9 NE 9.8 0.0 0.0
14:13 21.8 15.2 66 1022.9 5.4 NW 9.8 0.0 0.0
14:14 21.8 15.4 67 1022.9 5.4 N 9.8 0.0 0.0
14:15 21.9 15.5 67 1022.6 8.3 N 9.8 0.0 0.0
14:16 21.8 15.4 67 1022.9 8.3 N 8.3 0.0 0.0
14:17 21.7 15.3 67 1023.0 4.5 N 8.3 0.0 0.0
14:18 21.8 15.6 68 1022.7 5.4 N 8.3 0.0 0.0
14:19 21.8 15.6 68 1022.9 6.9 N 8.3 0.0 0.0
14:20 21.8 15.6 68 1022.8 9.8 N 9.8 0.0 0.0
14:21 21.8 15.6 68 1022.8 9.2 S 9.8 0.0 0.0
14:22 21.8 15.6 68 1022.8 8.3 N 9.8 0.0 0.0
14:23 21.8 15.6 68 1023.2 12.1 N 12.1 0.0 0.0
14:24 21.8 15.4 67 1023.0 12.1 N 12.1 0.0 0.0
14:26 21.8 15.4 67 1023.1 7.6 N 12.1 0.0 0.0
14:27 21.8 15.4 67 1023.0 5.4 SE 12.1 0.0 0.0
14:28 21.8 15.4 67 1023.0 8.3 NE 12.1 0.0 0.0
14:29 21.8 15.2 66 1022.9 8.3 NE 12.1 0.0 0.0
14:30 21.8 15.4 67 1023.0 3.1 N 12.1 0.0 0.0
14:31 21.8 15.4 67 1023.0 6.9 NE 12.1 0.0 0.0
14:32 21.8 15.4 67 1023.1 6.9 NNW 12.1 0.0 0.0
14:33 21.8 15.4 67 1022.9 9.2 N 12.1 0.0 0.0
14:34 21.8 15.4 67 1022.9 5.4 N 12.1 0.0 0.0
14:35 21.9 15.7 68 1022.8 6.0 W 9.2 0.0 0.0
14:36 22.0 16.1 69 1023.1 6.0 WNW 9.2 0.0 0.0
14:37 22.1 16.2 69 1022.7 6.0 N 9.2 0.0 0.0
14:38 22.2 16.3 69 1023.0 5.4 W 9.2 0.0 0.0
14:39 22.3 16.4 69 1022.7 8.3 NE 9.2 0.0 0.0
14:40 22.3 16.1 68 1022.9 8.3 NW 9.2 0.0 0.0
14:41 22.4 16.0 67 1022.8 6.9 N 9.2 0.0 0.0
14:42 22.4 16.0 67 1022.8 6.9 E 9.2 0.0 0.0
14:43 22.3 15.7 66 1023.0 7.6 N 9.2 0.0 0.0
14:44 22.2 15.6 66 1022.9 6.0 N 8.3 0.0 0.0
14:45 22.2 15.6 66 1022.9 7.6 N 8.3 0.0 0.0
14:47 22.2 15.6 66 1022.8 6.0 W 8.3 0.0 0.0
14:48 22.2 15.6 66 1022.8 6.9 N 8.3 0.0 0.0
14:49 22.2 15.6 66 1022.8 8.3 NE 8.3 0.0 0.0
14:50 22.1 15.2 65 1022.9 8.3 N 8.3 0.0 0.0
14:51 22.1 15.5 66 1022.8 6.9 N 8.3 0.0 0.0
14:52 22.0 15.1 65 1022.9 8.3 N 8.3 0.0 0.0
14:53 22.0 15.1 65 1022.6 6.0 N 8.3 0.0 0.0
14:54 21.9 15.0 65 1022.8 7.6 NE 8.3 0.0 0.0
14:55 21.9 15.3 66 1022.9 7.6 N 8.3 0.0 0.0
14:56 21.9 15.3 66 1022.8 9.2 N 9.2 0.0 0.0
14:57 21.9 15.5 67 1022.8 5.4 NW 9.2 0.0 0.0
14:58 22.0 15.8 68 1022.9 6.0 NE 9.2 0.0 0.0
14:59 22.0 15.4 66 1022.9 8.3 NE 9.2 0.0 0.0
15:00 22.0 15.4 66 1022.9 8.3 NE 9.2 0.0 0.0
15:01 22.0 15.4 66 1022.8 8.3 NE 9.2 0.0 0.0
15:03 22.0 15.4 66 1023.1 8.3 NE 9.2 0.0 0.0
15:04 22.0 15.4 66 1022.8 8.3 NE 9.2 0.0 0.0
15:05 22.2 15.6 66 1023.1 6.9 N 9.2 0.0 0.0
15:06 22.2 15.6 66 1022.7 6.9 N 9.2 0.0 0.0
15:07 22.2 15.6 66 1023.0 8.3 NE 8.3 0.0 0.0
15:08 22.2 15.8 67 1022.7 3.1 N 8.3 0.0 0.0
15:09 22.3 15.9 67 1022.9 4.5 NW 8.3 0.0 0.0
15:10 22.3 15.9 67 1023.1 4.5 NE 8.3 0.0 0.0
15:11 22.3 15.9 67 1022.9 4.5 NE 8.3 0.0 0.0
15:12 22.3 15.7 66 1022.8 8.3 N 8.3 0.0 0.0
15:13 22.3 15.7 66 1022.9 6.0 E 8.3 0.0 0.0
15:15 22.1 15.0 64 1023.0 7.6 NE 8.3 0.0 0.0
15:16 22.1 15.0 64 1022.9 8.3 NNW 8.3 0.0 0.0
15:17 22.0 15.1 65 1023.1 7.6 NE 8.3 0.0 0.0
15:18 21.9 14.8 64 1022.8 6.9 N 8.3 0.0 0.0
15:19 21.9 15.0 65 1023.2 6.9 E 8.3 0.0 0.0
15:20 21.9 15.0 65 1022.8 4.5 N 8.3 0.0 0.0
15:21 21.9 15.0 65 1022.9 4.5 NE 8.3 0.0 0.0
15:22 21.9 15.0 65 1023.0 6.0 NE 8.3 0.0 0.0
15:24 22.1 15.5 66 1022.8 6.0 NW 8.3 0.0 0.0
15:25 22.1 15.5 66 1022.9 6.9 N 8.3 0.0 0.0
15:26 22.1 15.2 65 1023.0 6.9 NNE 7.6 0.0 0.0
15:27 22.1 15.0 64 1022.8 6.0 NW 7.6 0.0 0.0
15:28 22.0 14.9 64 1023.0 7.6 NE 7.6 0.0 0.0
15:29 22.0 14.9 64 1023.0 6.0 E 8.3 0.0 0.0
15:30 22.0 14.9 64 1023.2 6.0 NE 8.3 0.0 0.0
15:31 22.0 15.1 65 1022.9 7.6 SE 8.3 0.0 0.0
15:32 22.0 15.1 65 1022.8 6.9 N 8.3 0.0 0.0
15:33 22.1 15.2 65 1022.8 6.0 NE 8.3 0.0 0.0
15:34 22.2 15.3 65 1023.0 6.0 N 8.3 0.0 0.0
15:35 22.2 15.3 65 1023.1 3.8 N 8.3 0.0 0.0
15:36 22.2 15.6 66 1022.8 3.8 NE 8.3 0.0 0.0
15:37 22.2 15.6 66 1023.1 5.4 N 8.3 0.0 0.0
15:38 22.3 15.9 67 1022.8 6.0 NE 8.3 0.0 0.0
15:39 22.5 15.1 63 1022.8 4.5 N 7.6 0.0 0.0
15:40 22.5 15.1 63 1023.0 3.8 SE 7.6 0.0 0.0
15:42 22.7 15.3 63 1022.7 3.1 NE 6.0 0.0 0.0
15:43 22.7 15.1 62 1022.7 4.5 NE 6.0 0.0 0.0
15:44 22.6 15.0 62 1022.7 4.5 N 6.0 0.0 0.0
15:45 22.6 15.0 62 1022.9 5.4 N 6.0 0.0 0.0
15:46 22.6 15.0 62 1022.9 4.5 W 6.0 0.0 0.0
15:47 22.7 15.1 62 1022.8 6.9 N 6.9 0.0 0.0
15:48 22.7 15.1 62 1022.6 6.9 N 6.9 0.0 0.0
15:49 22.6 15.0 62 1022.8 4.5 NE 6.9 0.0 0.0
15:50 22.6 15.0 62 1022.8 6.9 NW 6.9 0.0 0.0
15:51 22.6 15.0 62 1022.8 6.0 NE 6.9 0.0 0.0
15:52 22.6 15.0 62 1022.7 5.4 N 6.9 0.0 0.0
15:53 22.5 14.6 61 1022.8 5.4 NE 6.9 0.0 0.0
15:54 22.5 14.6 61 1022.8 3.8 N 6.9 0.0 0.0
15:55 22.4 15.3 64 1022.6 3.8 N 6.9 0.0 0.0
15:56 22.4 15.5 65 1022.7 3.8 NE 6.9 0.0 0.0
15:57 22.5 14.9 62 1022.7 4.5 S 6.9 0.0 0.0
15:59 22.6 14.7 61 1022.6 5.4 NE 7.6 0.0 0.0
16:00 22.6 14.7 61 1022.9 5.4 NE 7.6 0.0 0.0
16:01 22.6 14.7 61 1022.7 5.4 NE 7.6 0.0 0.0
16:02 22.6 14.7 61 1022.7 5.4 NE 7.6 0.0 0.0
16:03 22.5 14.4 60 1022.6 3.8 S 7.6 0.0 0.0
16:04 22.5 14.6 61 1022.7 3.8 NW 7.6 0.0 0.0
16:05 22.5 14.6 61 1022.7 6.9 N 7.6 0.0 0.0
16:06 22.5 14.6 61 1022.8 5.4 N 7.6 0.0 0.0
16:07 22.5 14.6 61 1022.7 5.4 N 7.6 0.0 0.0
16:08 22.5 14.6 61 1022.7 6.0 N 7.6 0.0 0.0
16:09 22.5 14.6 61 1022.8 5.4 NE 7.6 0.0 0.0
16:10 22.5 14.6 61 1022.8 5.4 N 6.9 0.0 0.0
16:11 22.5 14.6 61 1022.6 5.4 E 6.9 0.0 0.0
16:12 22.5 14.6 61 1022.6 5.4 E 6.9 0.0 0.0
16:13 22.5 14.6 61 1022.6 6.0 ENE 6.9 0.0 0.0
16:14 22.5 14.4 60 1022.7 4.5 N 6.9 0.0 0.0
16:15 22.4 15.0 63 1022.6 3.1 N 6.9 0.0 0.0
16:16 22.4 15.0 63 1022.5 3.8 NE 6.0 0.0 0.0
16:18 22.5 14.4 60 1022.6 4.5 N 6.0 0.0 0.0
16:19 22.5 14.6 61 1022.5 3.1 N 6.0 0.0 0.0
16:20 22.5 14.6 61 1022.5 3.1 N 6.0 0.0 0.0
16:21 22.6 14.7 61 1022.6 6.9 NE 6.9 0.0 0.0
16:22 22.5 14.4 60 1022.6 6.0 N 6.9 0.0 0.0
16:23 22.5 14.4 60 1022.6 4.5 NE 6.9 0.0 0.0
16:24 22.5 14.6 61 1022.5 5.4 N 6.9 0.0 0.0
16:25 22.5 14.6 61 1022.8 7.6 N 7.6 0.0 0.0
16:26 22.5 14.4 60 1022.6 7.6 N 7.6 0.0 0.0
16:27 22.4 14.8 62 1022.4 6.9 NE 7.6 0.0 0.0
16:28 22.4 15.0 63 1022.7 3.8 NE 7.6 0.0 0.0
16:29 22.4 15.0 63 1022.4 6.9 N 7.6 0.0 0.0
16:30 22.4 15.0 63 1022.6 6.9 N 7.6 0.0 0.0
16:31 22.4 15.0 63 1022.5 3.8 E 7.6 0.0 0.0
16:32 22.4 15.3 64 1022.6 3.8 NW 7.6 0.0 0.0
16:33 22.5 14.6 61 1022.6 4.5 E 7.6 0.0 0.0
16:34 22.5 14.6 61 1022.4 4.5 E 7.6 0.0 0.0
16:35 22.6 14.5 60 1022.6 4.5 NE 7.6 0.0 0.0
16:37 22.5 14.4 60 1022.7 6.0 E 6.9 0.0 0.0
16:38 22.5 14.4 60 1022.6 4.5 E 6.9 0.0 0.0
16:39 22.6 14.5 60 1022.4 5.4 N 6.9 0.0 0.0
16:40 22.6 14.5 60 1022.4 5.4 N 6.9 0.0 0.0
16:41 22.6 14.5 60 1022.5 4.5 NE 6.0 0.0 0.0
16:42 22.6 14.5 60 1022.5 4.5 NE 6.0 0.0 0.0
16:43 22.6 14.5 60 1022.8 5.4 N 6.0 0.0 0.0
16:44 22.6 14.5 60 1022.7 3.8 NW 6.0 0.0 0.0
16:45 22.7 14.6 60 1022.5 3.8 NE 6.0 0.0 0.0
16:46 22.7 14.6 60 1022.6 6.0 NE 6.0 0.0 0.0
16:47 22.7 14.6 60 1022.6 6.0 E 6.0 0.0 0.0
16:48 22.8 14.6 60 1022.5 6.0 NE 6.0 0.0 0.0
16:49 22.9 15.0 61 1022.6 3.1 E 6.0 0.0 0.0
16:50 22.9 15.0 61 1022.5 3.1 NE 6.0 0.0 0.0
16:51 23.0 15.1 61 1022.6 3.1 NE 6.0 0.0 0.0
16:52 23.1 15.2 61 1022.5 4.5 N 6.0 0.0 0.0
16:53 23.1 14.9 60 1022.7 3.8 NW 6.0 0.0 0.0
16:54 23.1 14.9 60 1022.5 3.8 N 6.0 0.0 0.0
16:55 23.1 14.9 60 1022.6 5.4 N 6.0 0.0 0.0
16:57 23.1 14.9 60 1022.7 5.4 E 6.0 0.0 0.0
16:58 23.1 14.9 60 1022.6 5.4 E 5.4 0.0 0.0
16:59 23.0 14.8 60 1022.5 3.1 NE 5.4 0.0 0.0
17:00 23.0 14.8 60 1022.5 3.1 NE 5.4 0.0 0.0
17:01 23.0 14.8 60 1022.7 3.1 NE 5.4 0.0 0.0
17:02 23.0 14.8 60 1022.6 3.1 NE 5.4 0.0 0.0
17:03 23.0 14.8 60 1022.7 3.1 NE 5.4 0.0 0.0
17:04 23.0 14.8 60 1022.6 3.1 NE 5.4 0.0 0.0
17:05 22.9 14.5 59 1022.5 6.9 N 6.9 0.0 0.0
17:06 22.9 14.5 59 1022.6 6.0 SE 6.9 0.0 0.0
17:07 22.8 14.6 60 1022.6 3.8 NW 6.9 0.0 0.0
17:08 22.8 14.6 60 1022.6 3.8 NE 6.9 0.0 0.0
17:09 22.7 14.6 60 1022.5 8.3 E 8.3 0.0 0.0
17:10 22.7 14.6 60 1022.5 6.0 N 8.3 0.0 0.0
17:11 22.7 14.6 60 1022.6 3.8 N 8.3 0.0 0.0
17:12 22.7 14.6 60 1022.7 3.1 E 8.3 0.0 0.0
17:13 22.7 14.8 61 1022.7 3.1 NNW 8.3 0.0 0.0
17:14 22.7 14.8 61 1022.7 6.0 NW 8.3 0.0 0.0
17:16 22.6 14.7 61 1022.7 6.0 N 8.3 0.0 0.0
17:17 22.5 14.6 61 1022.8 4.5 N 8.3 0.0 0.0
17:18 22.5 14.6 61 1022.6 4.5 N 8.3 0.0 0.0
17:19 22.4 15.3 64 1022.5 6.9 N 8.3 0.0 0.0
17:20 22.3 15.2 64 1022.6 6.0 NE 6.9 0.0 0.0
17:21 22.1 15.0 64 1022.6 5.4 N 6.9 0.0 0.0
17:22 22.1 15.2 65 1022.7 5.4 N 6.9 0.0 0.0
17:23 22.0 15.1 65 1022.5 6.0 NW 6.9 0.0 0.0
17:24 21.9 15.0 65 1022.4 5.4 N 6.9 0.0 0.0
17:25 21.9 15.0 65 1022.6 4.5 NE 6.9 0.0 0.0
17:26 21.8 14.9 65 1022.6 4.5 NE 6.9 0.0 0.0
17:28 21.8 14.9 65 1022.7 5.4 N 6.9 0.0 0.0
17:29 21.8 14.9 65 1022.8 5.4 N 6.0 0.0 0.0
17:30 21.8 14.9 65 1022.6 5.4 N 6.0 0.0 0.0
17:31 21.8 15.2 66 1022.7 3.8 SW 6.0 0.0 0.0
17:32 21.8 15.2 66 1022.7 5.4 N 6.0 0.0 0.0
17:33 21.8 15.2 66 1022.6 3.8 NW 6.9 0.0 0.0
17:34 21.8 14.9 65 1022.9 3.8 N 6.9 0.0 0.0
17:35 21.8 14.9 65 1022.7 4.5 N 6.9 0.0 0.0
17:36 21.7 14.8 65 1022.7 6.0 W 6.9 0.0 0.0
17:37 21.6 14.8 65 1022.6 4.5 NE 6.9 0.0 0.0
17:38 21.5 14.7 65 1022.7 5.4 NE 6.9 0.0 0.0
17:39 21.5 14.7 65 1022.6 7.6 NE 7.6 0.0 0.0
17:40 21.4 14.6 65 1022.7 6.0 N 7.6 0.0 0.0
17:41 21.3 14.7 66 1022.8 3.8 NE 7.6 0.0 0.0
17:42 21.3 14.7 66 1022.6 8.3 E 8.3 0.0 0.0
17:43 21.2 14.4 65 1022.7 8.3 N 8.3 0.0 0.0
17:44 21.1 14.3 65 1022.8 3.8 N 8.3 0.0 0.0
17:46 21.0 14.4 66 1022.6 6.9 N 8.3 0.0 0.0
17:47 20.9 14.3 66 1022.8 6.0 N 8.3 0.0 0.0
17:48 20.9 14.3 66 1022.8 5.4 E 8.3 0.0 0.0
17:49 20.8 14.2 66 1022.6 6.9 N 8.3 0.0 0.0
17:50 20.8 14.2 66 1022.8 6.9 SE 8.3 0.0 0.0
17:51 20.7 14.1 66 1022.9 5.4 NE 8.3 0.0 0.0
17:52 20.7 14.4 67 1022.9 4.5 NW 8.3 0.0 0.0
17:53 20.6 14.3 67 1023.0 4.5 E 6.9 0.0 0.0
17:54 20.6 14.3 67 1023.0 5.4 NE 6.9 0.0 0.0
17:56 20.5 14.2 67 1022.9 4.5 NE 6.9 0.0 0.0
17:57 20.5 14.2 67 1022.9 3.8 NW 6.9 0.0 0.0
17:58 20.5 14.4 68 1022.8 3.1 E 6.9 0.0 0.0
17:59 20.5 14.4 68 1022.9 6.0 NE 6.9 0.0 0.0
18:00 20.5 14.4 68 1022.9 6.0 NE 6.9 0.0 0.0
18:01 20.5 14.4 68 1023.0 6.0 NE 6.0 0.0 0.0
18:02 20.5 14.4 68 1022.9 4.5 NE 6.0 0.0 0.0
18:03 20.5 14.6 69 1023.0 4.5 NE 6.0 0.0 0.0
18:04 20.5 14.4 68 1022.8 4.5 NE 6.0 0.0 0.0
18:05 20.4 14.3 68 1022.9 5.4 E 6.0 0.0 0.0
18:06 20.4 14.3 68 1022.9 3.8 N 6.0 0.0 0.0
18:07 20.3 14.2 68 1022.9 5.4 NW 6.0 0.0 0.0
18:08 20.3 14.2 68 1023.0 3.8 NE 6.0 0.0 0.0
18:09 20.2 14.1 68 1023.0 4.5 ENE 6.0 0.0 0.0
18:10 20.2 14.1 68 1023.0 5.4 N 6.0 0.0 0.0
18:11 20.1 14.2 69 1023.1 3.8 NE 6.0 0.0 0.0
18:12 20.1 14.2 69 1022.8 3.8 NE 5.4 0.0 0.0
18:13 20.0 14.2 69 1022.8 5.4 N 5.4 0.0 0.0
18:14 20.0 14.2 69 1023.1 4.5 N 5.4 0.0 0.0
18:16 19.9 14.3 70 1023.1 4.5 NW 5.4 0.0 0.0
18:17 19.9 14.3 70 1022.9 5.4 W 5.4 0.0 0.0
18:18 19.8 14.2 70 1022.9 3.8 W 5.4 0.0 0.0
18:19 19.8 14.2 70 1022.9 3.1 NE 5.4 0.0 0.0
18:20 19.7 14.1 70 1023.1 3.8 E 5.4 0.0 0.0
18:21 19.7 14.1 70 1022.9 3.8 E 5.4 0.0 0.0
18:22 19.6 14.0 70 1023.0 6.0 NE 6.0 0.0 0.0
18:23 19.6 14.0 70 1023.0 6.0 N 6.0 0.0 0.0
18:24 19.6 14.0 70 1022.9 5.4 N 6.0 0.0 0.0
18:25 19.5 13.9 70 1023.1 6.0 NW 6.0 0.0 0.0
18:26 19.5 13.9 70 1023.1 4.5 N 6.0 0.0 0.0
18:27 19.5 13.9 70 1023.0 3.1 E 6.0 0.0 0.0
18:28 19.4 13.8 70 1022.9 4.5 NE 6.0 0.0 0.0
18:29 19.4 13.8 70 1023.0 5.4 NE 6.0 0.0 0.0
18:30 19.3 13.7 70 1023.2 5.4 N 6.0 0.0 0.0
18:31 19.2 13.6 70 1023.0 3.1 E 6.0 0.0 0.0
18:33 19.2 13.6 70 1022.9 3.1 NE 6.0 0.0 0.0
18:34 19.2 13.6 70 1023.2 3.1 NE 6.0 0.0 0.0
18:35 19.2 13.6 70 1022.9 2.2 NE 6.0 0.0 0.0
18:36 19.2 13.6 70 1022.9 2.2 NE 5.4 0.0 0.0
18:37 19.1 13.5 70 1023.0 3.1 NE 5.4 0.0 0.0
18:38 19.1 13.5 70 1022.9 3.1 NW 5.4 0.0 0.0
18:39 19.1 13.5 70 1023.0 2.2 NW 5.4 0.0 0.0
18:40 19.0 13.4 70 1022.9 2.2 SW 5.4 0.0 0.0
18:41 19.0 13.4 70 1023.1 3.1 N 3.1 0.0 0.0
18:42 19.0 13.4 70 1023.1 3.1 NE 3.1 0.0 0.0
18:43 19.0 13.4 70 1023.1 3.1 NW 3.1 0.0 0.0
18:44 18.9 13.3 70 1023.2 2.2 NE 3.1 0.0 0.0
18:45 18.9 13.3 70 1023.2 2.2 NW 3.1 0.0 0.0
18:46 18.9 13.3 70 1023.2 1.6 NW 3.1 0.0 0.0
18:47 18.8 13.2 70 1023.1 3.1 SE 3.1 0.0 0.0
18:49 18.8 13.2 70 1022.9 4.5 NE 6.0 0.0 0.0
18:50 18.7 13.1 70 1023.1 4.5 N 6.0 0.0 0.0
18:51 18.6 13.0 70 1023.0 5.4 N 6.0 0.0 0.0
18:52 18.6 13.2 71 1023.1 3.8 E 6.0 0.0 0.0
18:53 18.6 13.2 71 1023.1 5.4 N 6.0 0.0 0.0
18:54 18.5 13.2 71 1023.1 5.4 ENE 6.0 0.0 0.0
18:55 18.5 13.2 71 1023.1 4.5 NE 6.0 0.0 0.0
18:56 18.4 13.1 71 1023.0 3.8 NE 6.0 0.0 0.0
18:57 18.4 13.1 71 1023.1 4.5 N 6.0 0.0 0.0
18:58 18.4 13.1 71 1023.1 4.5 N 6.0 0.0 0.0
18:59 18.3 13.0 71 1023.1 3.8 NE 5.4 0.0 0.0
19:00 18.2 12.9 71 1023.2 3.1 N 5.4 0.0 0.0
19:01 18.2 12.9 71 1023.2 3.1 N 5.4 0.0 0.0
19:02 18.2 12.9 71 1023.2 5.4 N 5.4 0.0 0.0
19:03 18.0 12.7 71 1023.0 5.4 NE 5.4 0.0 0.0
19:04 18.0 12.7 71 1023.0 6.0 N 6.0 0.0 0.0
19:05 17.9 12.6 71 1023.1 6.0 NE 6.0 0.0 0.0
19:06 17.9 12.6 71 1023.1 5.4 E 6.0 0.0 0.0
19:08 17.8 12.5 71 1023.0 5.4 NE 6.0 0.0 0.0
19:09 17.8 12.5 71 1023.2 5.4 NE 6.0 0.0 0.0
19:10 17.7 12.4 71 1023.0 5.4 NE 6.0 0.0 0.0
19:11 17.6 12.5 72 1023.2 5.4 NE 6.0 0.0 0.0
19:12 17.6 12.5 72 1023.2 5.4 NE 6.0 0.0 0.0
19:13 17.5 12.4 72 1022.9 4.5 NE 6.0 0.0 0.0
19:14 17.5 12.4 72 1023.1 4.5 NE 6.0 0.0 0.0
19:15 17.4 12.9 75 1023.0 6.9 N 6.9 0.0 0.0
19:16 17.4 12.9 75 1023.2 6.9 N 6.9 0.0 0.0
19:17 17.3 12.8 75 1023.3 7.6 NE 7.6 0.0 0.0
19:18 17.3 12.8 75 1023.1 5.4 NE 7.6 0.0 0.0
19:20 17.2 12.9 76 1023.3 5.4 NE 7.6 0.0 0.0
19:21 17.1 12.8 76 1023.0 5.4 E 7.6 0.0 0.0
19:22 17.1 12.8 76 1023.3 6.0 NE 7.6 0.0 0.0
19:23 17.1 12.8 76 1023.4 5.4 E 7.6 0.0 0.0
19:24 17.1 12.8 76 1023.4 5.4 E 7.6 0.0 0.0
19:25 17.0 12.7 76 1023.2 3.8 NE 7.6 0.0 0.0
19:26 17.0 12.9 77 1023.2 6.0 NE 7.6 0.0 0.0
19:27 17.0 12.9 77 1023.4 5.4 NE 7.6 0.0 0.0
19:28 17.0 12.9 77 1023.4 6.0 N 6.0 0.0 0.0
19:29 16.9 12.9 77 1023.3 7.6 NE 7.6 0.0 0.0
19:30 16.9 12.9 77 1023.4 4.5 N 7.6 0.0 0.0
19:31 16.9 12.9 77 1023.4 5.4 NE 7.6 0.0 0.0
19:32 16.9 12.9 77 1023.2 5.4 E 7.6 0.0 0.0
19:33 16.8 13.0 78 1023.2 4.5 E 7.6 0.0 0.0
19:34 16.8 13.0 78 1023.5 4.5 E 7.6 0.0 0.0
19:35 16.8 13.0 78 1023.4 5.4 N 7.6 0.0 0.0
19:36 16.8 13.0 78 1023.5 4.5 E 7.6 0.0 0.0
19:37 16.7 12.9 78 1023.4 6.0 NE 7.6 0.0 0.0
19:38 16.7 12.9 78 1023.4 5.4 NE 7.6 0.0 0.0
19:39 16.7 13.0 79 1023.3 5.4 E 7.6 0.0 0.0
19:41 16.7 13.0 79 1023.4 4.5 NE 6.0 0.0 0.0
19:42 16.7 13.0 79 1023.4 4.5 N 6.0 0.0 0.0
19:43 16.6 13.0 79 1023.7 5.4 NE 6.0 0.0 0.0
19:44 16.6 13.0 79 1023.7 5.4 NE 6.0 0.0 0.0
19:45 16.6 13.1 80 1023.5 5.4 NE 6.0 0.0 0.0
19:46 16.6 13.1 80 1023.5 5.4 NE 6.0 0.0 0.0
19:47 16.6 13.1 80 1023.2 5.4 E 6.0 0.0 0.0
19:48 16.6 13.1 80 1023.4 5.4 SE 5.4 0.0 0.0
19:49 16.5 13.0 80 1023.3 3.8 NE 5.4 0.0 0.0
19:50 16.5 13.0 80 1023.7 3.8 N 5.4 0.0 0.0
19:51 16.5 13.0 80 1023.3 3.1 N 5.4 0.0 0.0
19:52 16.5 13.0 80 1023.4 3.8 E 5.4 0.0 0.0
19:53 16.5 13.0 80 1023.4 4.5 E 5.4 0.0 0.0
19:54 16.5 13.0 80 1023.4 4.5 N 5.4 0.0 0.0
19:55 16.5 13.0 80 1023.1 3.8 SE 5.4 0.0 0.0
19:56 16.5 13.0 80 1023.5 3.8 NE 5.4 0.0 0.0
19:57 16.5 13.0 80 1023.2 4.5 E 5.4 0.0 0.0
19:58 16.5 13.0 80 1023.4 4.5 E 4.5 0.0 0.0
20:00 16.4 12.9 80 1023.4 3.8 ENE 4.5 0.0 0.0
20:01 16.4 12.9 80 1023.5 3.8 ENE 4.5 0.0 0.0
20:02 16.4 12.9 80 1023.4 3.8 ENE 4.5 0.0 0.0
20:03 16.4 12.9 80 1023.2 3.8 ENE 4.5 0.0 0.0
20:04 16.4 12.9 80 1023.5 3.8 ENE 4.5 0.0 0.0
20:05 16.4 12.9 80 1023.5 3.8 ENE 4.5 0.0 0.0
20:06 16.3 13.0 81 1023.5 4.5 ENE 4.5 0.0 0.0
20:07 16.3 13.0 81 1023.5 4.5 E 4.5 0.0 0.0
20:08 16.3 13.0 81 1023.7 3.8 NE 4.5 0.0 0.0
20:09 16.3 13.0 81 1023.5 4.5 NE 4.5 0.0 0.0
20:10 16.3 13.0 81 1023.7 4.5 NE 4.5 0.0 0.0
20:11 16.3 13.0 81 1023.6 4.5 N 4.5 0.0 0.0
20:12 16.2 12.9 81 1023.7 3.8 NE 4.5 0.0 0.0
20:13 16.2 12.9 81 1023.6 3.8 E 4.5 0.0 0.0
20:14 16.2 12.9 81 1023.6 3.8 N 4.5 0.0 0.0
20:15 16.1 12.8 81 1023.6 3.8 NE 4.5 0.0 0.0
20:16 16.1 12.8 81 1023.4 5.4 E 5.4 0.0 0.0
20:17 16.1 12.8 81 1023.7 4.5 E 5.4 0.0 0.0
20:18 16.1 12.8 81 1023.5 4.5 E 5.4 0.0 0.0
20:19 16.1 12.8 81 1023.4 3.8 NE 5.4 0.0 0.0
20:20 16.1 12.8 81 1023.5 4.5 NE 5.4 0.0 0.0
20:22 16.0 12.7 81 1023.8 5.4 E 5.4 0.0 0.0
20:23 16.0 12.7 81 1023.9 4.5 E 5.4 0.0 0.0
20:24 16.0 12.7 81 1023.6 4.5 NE 5.4 0.0 0.0
20:25 16.0 12.7 81 1023.7 4.5 NE 5.4 0.0 0.0
20:26 16.0 12.7 81 1023.9 4.5 N 5.4 0.0 0.0
20:27 16.0 12.7 81 1023.7 4.5 NE 5.4 0.0 0.0
20:28 16.0 12.7 81 1023.6 4.5 E 5.4 0.0 0.0
20:29 15.9 12.7 81 1023.7 4.5 E 5.4 0.0 0.0
20:30 15.9 12.7 81 1023.6 4.5 NE 5.4 0.0 0.0
20:31 15.9 12.7 81 1023.6 4.5 E 5.4 0.0 0.0
20:32 15.9 12.7 81 1023.8 6.0 E 6.0 0.0 0.0
20:33 15.9 12.7 81 1023.8 3.8 NE 6.0 0.0 0.0
20:34 15.9 12.7 81 1023.8 4.5 NE 6.0 0.0 0.0
20:35 15.9 12.7 81 1023.7 4.5 NE 6.0 0.0 0.0
20:36 15.9 12.8 82 1023.8 4.5 NE 6.0 0.0 0.0
20:37 15.8 12.7 82 1023.8 3.8 NE 6.0 0.0 0.0
20:38 15.8 12.7 82 1023.6 3.8 E 6.0 0.0 0.0
20:39 15.8 12.7 82 1023.9 3.8 NE 6.0 0.0 0.0
20:40 15.8 12.7 82 1023.8 3.8 E 6.0 0.0 0.0
20:42 15.8 12.7 82 1023.7 3.8 NE 4.5 0.0 0.0
20:43 15.8 12.7 82 1023.7 4.5 NE 4.5 0.0 0.0
20:44 15.8 12.7 82 1023.6 3.8 E 4.5 0.0 0.0
20:45 15.8 12.7 82 1023.5 5.4 NE 5.4 0.0 0.0
20:46 15.8 12.7 82 1023.5 3.8 NE 5.4 0.0 0.0
20:47 15.8 12.7 82 1023.6 5.4 NE 5.4 0.0 0.0
20:48 15.8 12.7 82 1023.8 5.4 E 5.4 0.0 0.0
20:49 15.7 12.6 82 1023.8 3.8 NE 5.4 0.0 0.0
20:50 15.7 12.6 82 1023.7 5.4 E 5.4 0.0 0.0
20:51 15.7 12.6 82 1023.8 3.8 NE 5.4 0.0 0.0
20:52 15.7 12.6 82 1023.7 3.8 NE 5.4 0.0 0.0
20:53 15.7 12.6 82 1023.7 4.5 NE 5.4 0.0 0.0
20:54 15.7 12.6 82 1023.9 4.5 NE 5.4 0.0 0.0
20:55 15.7 12.6 82 1024.0 4.5 NE 5.4 0.0 0.0
20:56 15.6 12.5 82 1023.6 4.5 E 5.4 0.0 0.0
20:58 15.6 12.5 82 1023.7 4.5 NE 5.4 0.0 0.0
20:59 15.6 12.5 82 1023.7 3.8 E 5.4 0.0 0.0
21:00 15.6 12.5 82 1023.7 3.8 E 5.4 0.0 0.0
21:01 15.6 12.5 82 1023.7 3.8 E 5.4 0.0 0.0
21:02 15.6 12.5 82 1023.9 3.8 E 5.4 0.0 0.0
21:03 15.6 12.5 82 1023.7 3.8 E 5.4 0.0 0.0
21:04 15.6 12.5 82 1023.8 3.8 E 5.4 0.0 0.0
21:05 15.6 12.5 82 1023.6 3.8 E 5.4 0.0 0.0
21:06 15.5 12.6 83 1023.8 4.5 E 4.5 0.0 0.0
21:07 15.5 12.6 83 1024.0 4.5 N 4.5 0.0 0.0
21:08 15.5 12.6 83 1023.8 4.5 ENE 4.5 0.0 0.0
21:09 15.5 12.6 83 1023.8 4.5 E 4.5 0.0 0.0
21:10 15.5 12.6 83 1024.0 4.5 E 4.5 0.0 0.0
21:11 15.5 12.6 83 1023.6 5.4 E 5.4 0.0 0.0
21:13 15.4 12.5 83 1023.9 3.8 NE 5.4 0.0 0.0
21:14 15.4 12.5 83 1023.9 4.5 E 5.4 0.0 0.0
21:15 15.4 12.5 83 1023.9 3.8 NE 5.4 0.0 0.0
21:16 15.4 12.5 83 1024.1 3.8 NE 5.4 0.0 0.0
21:17 15.4 12.5 83 1023.8 3.8 NE 5.4 0.0 0.0
21:18 15.4 12.5 83 1023.9 3.1 NE 5.4 0.0 0.0
21:20 15.3 12.4 83 1023.9 3.8 NE 5.4 0.0 0.0
21:21 15.3 12.4 83 1023.9 3.8 NNE 5.4 0.0 0.0
21:22 15.3 12.4 83 1023.8 3.8 NE 4.5 0.0 0.0
21:23 15.3 12.4 83 1023.8 3.1 NE 4.5 0.0 0.0
21:24 15.2 12.3 83 1023.8 3.8 NE 4.5 0.0 0.0
21:25 15.2 12.3 83 1023.9 3.8 NE 3.8 0.0 0.0
21:26 15.2 12.3 83 1023.8 3.1 E 3.8 0.0 0.0
21:27 15.2 12.3 83 1023.7 3.1 E 3.8 0.0 0.0
21:28 15.1 12.2 83 1023.8 3.8 E 3.8 0.0 0.0
21:29 15.1 12.2 83 1023.9 3.8 N 3.8 0.0 0.0
21:30 15.1 12.2 83 1023.9 3.1 NE 3.8 0.0 0.0
21:31 15.1 12.2 83 1023.9 3.1 N 3.8 0.0 0.0
21:32 15.1 12.2 83 1023.9 3.1 NE 3.8 0.0 0.0
21:34 15.0 12.1 83 1024.0 4.5 E 4.5 0.0 0.0
21:35 15.0 12.1 83 1023.8 3.8 NE 4.5 0.0 0.0
21:36 15.0 12.1 83 1023.9 3.1 NE 4.5 0.0 0.0
21:37 15.0 12.1 83 1024.0 3.1 NE 4.5 0.0 0.0
21:38 15.0 12.1 83 1023.9 3.1 NE 4.5 0.0 0.0
21:39 15.0 12.1 83 1024.1 3.8 NE 4.5 0.0 0.0
21:40 15.0 12.1 83 1023.9 4.5 NE 4.5 0.0 0.0
21:41 15.0 12.1 83 1024.0 3.8 NE 4.5 0.0 0.0
21:42 15.0 12.1 83 1024.1 4.5 NE 4.5 0.0 0.0
21:43 15.0 12.1 83 1024.0 3.1 NE 4.5 0.0 0.0
21:44 15.0 12.1 83 1023.9 3.1 E 4.5 0.0 0.0
21:45 15.0 12.1 83 1023.9 3.8 NE 4.5 0.0 0.0
21:46 15.0 12.1 83 1023.9 3.1 NE 4.5 0.0 0.0
21:47 15.1 12.2 83 1024.1 2.2 NE 4.5 0.0 0.0
21:49 15.0 12.1 83 1024.0 3.8 SE 4.5 0.0 0.0
21:50 15.0 12.1 83 1024.2 3.8 NE 4.5 0.0 0.0
21:51 15.0 12.1 83 1024.0 3.8 NE 4.5 0.0 0.0
21:52 15.0 12.1 83 1024.0 3.8 NE 4.5 0.0 0.0
21:53 15.0 12.1 83 1023.9 3.1 NE 3.8 0.0 0.0
21:54 15.0 12.1 83 1024.0 3.1 NE 3.8 0.0 0.0
21:55 15.0 12.1 83 1024.0 3.1 NE 3.8 0.0 0.0
21:56 15.0 12.1 83 1024.1 3.1 NE 3.8 0.0 0.0
21:57 15.0 12.1 83 1023.9 3.1 E 3.8 0.0 0.0
21:58 15.0 12.1 83 1023.9 3.1 E 3.8 0.0 0.0
21:59 14.9 12.0 83 1024.0 4.5 NE 4.5 0.0 0.0
22:00 14.9 12.0 83 1024.1 3.8 NE 4.5 0.0 0.0
22:01 14.9 12.0 83 1024.1 3.8 NE 4.5 0.0 0.0
22:03 14.9 12.0 83 1024.1 2.2 NE 6.0 0.0 0.0
22:04 14.9 12.0 83 1024.1 3.1 E 6.0 0.0 0.0
22:05 15.0 12.1 83 1024.3 3.1 NE 6.0 0.0 0.0
22:06 15.0 12.1 83 1024.3 3.1 NE 6.0 0.0 0.0
22:07 15.0 12.1 83 1024.3 3.1 NE 6.0 0.0 0.0
22:08 15.0 12.1 83 1024.1 3.8 NE 6.0 0.0 0.0
22:09 15.0 12.1 83 1024.3 3.1 NE 6.0 0.0 0.0
22:10 15.0 12.1 83 1024.3 3.1 E 6.0 0.0 0.0
22:11 15.0 12.1 83 1024.3 3.1 E 6.0 0.0 0.0
22:12 15.0 12.1 83 1024.2 3.8 E 6.0 0.0 0.0
22:13 15.1 12.4 84 1024.2 3.8 NE 3.8 0.0 0.0
22:14 15.1 12.4 84 1024.2 3.8 NE 3.8 0.0 0.0
22:15 15.1 12.4 84 1024.0 3.1 NNE 3.8 0.0 0.0
22:16 15.1 12.4 84 1024.3 3.1 NE 3.8 0.0 0.0
22:18 15.1 12.4 84 1024.5 3.1 E 3.8 0.0 0.0
22:19 15.1 12.4 84 1024.3 3.1 E 3.8 0.0 0.0
22:20 15.1 12.4 84 1024.3 3.1 E 3.8 0.0 0.0
22:21 15.1 12.4 84 1024.2 3.1 NE 3.8 0.0 0.0
22:22 15.1 12.4 84 1024.3 3.1 NE 3.8 0.0 0.0
22:23 15.1 12.4 84 1024.3 3.1 NE 3.8 0.0 0.0
22:24 15.1 12.4 84 1024.5 3.8 NE 3.8 0.0 0.0
22:25 15.1 12.4 84 1024.4 3.8 NE 3.8 0.0 0.0
22:26 15.1 12.4 84 1024.4 3.8 ENE 3.8 0.0 0.0
22:27 15.1 12.4 84 1024.5 3.8 E 3.8 0.0 0.0
22:28 15.1 12.4 84 1024.6 3.8 E 3.8 0.0 0.0
22:29 15.1 12.4 84 1024.3 3.8 E 3.8 0.0 0.0
22:30 15.1 12.4 84 1024.3 3.8 NE 3.8 0.0 0.0
22:32 15.1 12.4 84 1024.5 3.8 E 4.5 0.0 0.0
22:33 15.1 12.4 84 1024.6 4.5 NE 4.5 0.0 0.0
22:34 15.1 12.4 84 1024.5 4.5 NE 4.5 0.0 0.0
22:35 15.1 12.4 84 1024.5 4.5 E 4.5 0.0 0.0
22:36 15.1 12.4 84 1024.6 4.5 E 4.5 0.0 0.0
22:37 15.1 12.4 84 1024.5 4.5 E 4.5 0.0 0.0
22:38 15.1 12.4 84 1024.7 3.8 NE 4.5 0.0 0.0
22:39 15.1 12.4 84 1024.5 3.8 NE 4.5 0.0 0.0
22:40 15.1 12.4 84 1024.5 3.8 NE 4.5 0.0 0.0
22:41 15.1 12.4 84 1024.6 3.1 E 4.5 0.0 0.0
22:42 15.2 12.5 84 1024.6 3.8 NE 4.5 0.0 0.0
22:43 15.2 12.5 84 1024.5 3.1 ENE 4.5 0.0 0.0
22:44 15.2 12.5 84 1024.7 3.1 NE 4.5 0.0 0.0
22:46 15.2 12.5 84 1024.6 3.1 NE 4.5 0.0 0.0
22:47 15.2 12.5 84 1024.5 3.1 NE 4.5 0.0 0.0
22:48 15.2 12.5 84 1024.3 3.1 NE 3.8 0.0 0.0
22:49 15.2 12.5 84 1024.3 3.1 NE 3.8 0.0 0.0
22:50 15.2 12.5 84 1024.5 3.1 NE 3.8 0.0 0.0
22:51 15.2 12.5 84 1024.5 2.2 NE 3.8 0.0 0.0
22:52 15.2 12.5 84 1024.4 3.1 NE 3.8 0.0 0.0
22:53 15.2 12.5 84 1024.7 3.1 E 3.8 0.0 0.0
22:54 15.2 12.5 84 1024.4 3.1 NE 3.1 0.0 0.0
22:55 15.2 12.5 84 1024.6 3.1 NE 3.1 0.0 0.0
22:56 15.3 12.6 84 1024.6 2.2 E 3.1 0.0 0.0
22:57 15.3 12.6 84 1024.5 3.1 E 3.1 0.0 0.0
22:58 15.3 12.6 84 1024.5 2.2 NE 3.1 0.0 0.0
23:00 15.3 12.6 84 1024.7 2.2 NE 3.1 0.0 0.0
23:01 15.3 12.6 84 1024.7 2.2 NE 3.1 0.0 0.0
23:02 15.3 12.6 84 1024.6 2.2 NE 3.1 0.0 0.0
23:03 15.3 12.6 84 1024.6 2.2 NE 3.1 0.0 0.0
23:04 15.3 12.6 84 1024.5 2.2 NE 3.1 0.0 0.0
23:05 15.3 12.6 84 1024.5 2.2 NE 3.1 0.0 0.0
23:06 15.3 12.6 84 1024.7 2.2 NE 3.1 0.0 0.0
23:07 15.3 12.6 84 1024.7 3.1 NE 3.1 0.0 0.0
23:08 15.3 12.6 84 1024.6 2.2 NE 3.1 0.0 0.0
23:09 15.3 12.8 85 1024.7 2.2 NE 3.1 0.0 0.0
23:10 15.3 12.8 85 1024.5 2.2 NE 3.1 0.0 0.0
23:11 15.4 12.9 85 1024.7 2.2 E 3.1 0.0 0.0
23:12 15.4 12.9 85 1024.5 2.2 NE 3.1 0.0 0.0
23:13 15.4 12.9 85 1024.5 3.1 NE 3.1 0.0 0.0
23:15 15.4 12.9 85 1024.6 2.2 NE 3.1 0.0 0.0
23:16 15.4 12.9 85 1024.8 2.2 NE 3.1 0.0 0.0
23:17 15.5 13.0 85 1024.7 2.2 NE 3.1 0.0 0.0
23:18 15.5 13.0 85 1024.7 2.2 NE 3.1 0.0 0.0
23:19 15.5 13.0 85 1024.6 2.2 E 3.1 0.0 0.0
23:20 15.5 13.0 85 1024.7 2.2 E 3.1 0.0 0.0
23:21 15.6 13.1 85 1024.5 3.1 E 3.1 0.0 0.0
23:22 15.6 13.1 85 1024.6 3.1 NE 3.1 0.0 0.0
23:23 15.6 13.1 85 1024.5 3.1 NE 3.1 0.0 0.0
23:24 15.7 13.2 85 1024.8 3.1 N 3.1 0.0 0.0
23:25 15.7 13.2 85 1024.7 3.1 NE 3.1 0.0 0.0
23:27 15.7 13.2 85 1024.7 2.2 NE 3.1 0.0 0.0
23:28 15.7 13.2 85 1024.7 3.1 NE 3.1 0.0 0.0
23:29 15.7 13.2 85 1024.7 3.1 NE 3.1 0.0 0.0
23:30 15.7 13.2 85 1024.7 3.1 NE 3.1 0.0 0.0
23:31 15.7 13.2 85 1024.6 2.2 NE 3.1 0.0 0.0
23:32 15.7 13.2 85 1024.6 2.2 NNW 3.1 0.0 0.0
23:33 15.7 13.2 85 1024.7 2.2 NE 3.1 0.0 0.0
23:34 15.7 13.2 85 1024.8 2.2 NE 3.1 0.0 0.0
23:35 15.8 13.5 86 1024.7 2.2 NE 3.1 0.0 0.0
23:36 15.8 13.5 86 1024.8 2.2 E 3.1 0.0 0.0
23:37 15.8 13.5 86 1024.8 3.1 E 3.1 0.0 0.0
23:38 15.8 13.5 86 1024.8 2.2 NE 3.1 0.0 0.0
23:39 15.8 13.5 86 1024.7 2.2 NE 3.1 0.0 0.0
23:40 15.8 13.5 86 1024.7 3.1 E 3.1 0.0 0.0
23:42 15.9 13.6 86 1024.6 2.2 NNW 3.1 0.0 0.0
23:43 15.9 13.6 86 1024.8 3.1 NW 3.1 0.0 0.0
23:44 15.9 13.6 86 1024.8 3.1 NW 3.1 0.0 0.0
23:45 15.9 13.6 86 1024.6 3.1 NE 3.1 0.0 0.0
23:46 15.9 13.6 86 1024.8 3.1 NE 3.1 0.0 0.0
23:47 15.9 13.6 86 1024.7 3.1 E 3.1 0.0 0.0
23:48 15.9 13.6 86 1024.7 2.2 NE 3.1 0.0 0.0
23:49 15.9 13.6 86 1024.8 2.2 NE 3.1 0.0 0.0
23:50 15.9 13.6 86 1024.8 2.2 NE 3.1 0.0 0.0
23:51 15.9 13.6 86 1024.9 2.2 NE 3.1 0.0 0.0
23:52 15.9 13.6 86 1024.8 2.2 N 3.1 0.0 0.0
23:53 15.9 13.6 86 1024.8 2.2 NE 3.1 0.0 0.0
23:54 15.9 13.6 86 1024.6 3.1 NE 3.1 0.0 0.0
23:55 15.9 13.6 86 1024.9 2.2 NE 3.1 0.0 0.0
23:57 15.9 13.6 86 1025.0 2.2 NE 3.1 0.0 0.0
23:58 15.9 13.6 86 1024.8 2.2 NE 3.1 0.0 0.0
23:59 15.9 13.6 86 1025.0 2.2 E 3.1 0.0 0.0

 

 

UK - WEATHER STATION TOPSITES - UK World Weather Websites

Copyright © Carnkie Weather 2009 - 2020.